Wetterdaten: aktuell Mittwoch, 25.11.2020 23:02
Datum Zeit Temp. I. Temp. 2m Temp. 5cm Feuchte I. Feuchte 2m Luftdruck Regen Wind Richtung Richtung Taupunkt Windchill Windben
25.11.2020 23:02 18,9 C 0,0 C 4,7 C 48 % 92 % 1021,1 hPa 0,0 l/m 0,0 km/h (0 Bft) NW 315 -1,1 C 0,0 C 0,0 km/h (0 Bft)
25.11.2020 23:00 19,0 C 0,0 C 4,8 C 48 % 92 % 1021,1 hPa 0,0 l/m 0,0 km/h (0 Bft) O-NO 67 -1,1 C 0,0 C 0,0 km/h (0 Bft)
25.11.2020 22:58 19,1 C 0,0 C 4,8 C 48 % 92 % 1021,1 hPa 0,0 l/m 0,0 km/h (0 Bft) O 90 -1,1 C 0,0 C 0,0 km/h (0 Bft)
25.11.2020 22:56 19,1 C 0,0 C 4,8 C 48 % 92 % 1021,1 hPa 0,0 l/m 0,0 km/h (0 Bft) O-SO 112 -1,1 C 0,0 C 0,0 km/h (0 Bft)
25.11.2020 22:54 19,2 C 0,0 C 4,9 C 47 % 92 % 1021,1 hPa 0,0 l/m 0,0 km/h (0 Bft) O-SO 112 -1,1 C 0,0 C 0,0 km/h (0 Bft)
25.11.2020 22:52 19,2 C 0,0 C 4,9 C 47 % 92 % 1021,1 hPa 0,0 l/m 0,0 km/h (0 Bft) NW 315 -1,1 C 0,0 C 0,0 km/h (0 Bft)
25.11.2020 22:50 19,4 C 0,0 C 4,9 C 47 % 92 % 1021,8 hPa 0,0 l/m 0,0 km/h (0 Bft) S 180 -1,1 C 0,0 C 0,0 km/h (0 Bft)
25.11.2020 22:48 19,5 C 0,0 C 4,9 C 47 % 92 % 1021,8 hPa 0,0 l/m 0,0 km/h (0 Bft) SO 135 -1,1 C 0,0 C 0,0 km/h (0 Bft)
25.11.2020 22:46 19,6 C 0,0 C 4,9 C 47 % 92 % 1021,8 hPa 0,0 l/m 0,0 km/h (0 Bft) S 180 -1,1 C 0,0 C 0,0 km/h (0 Bft)
25.11.2020 22:44 19,7 C 0,0 C 4,9 C 46 % 92 % 1021,8 hPa 0,0 l/m 0,0 km/h (0 Bft) S-SO 157 -1,1 C 0,0 C 0,0 km/h (0 Bft)
25.11.2020 22:42 19,8 C 0,0 C 4,9 C 46 % 92 % 1021,8 hPa 0,0 l/m 0,0 km/h (0 Bft) S-SO 157 -1,1 C 0,0 C 0,0 km/h (0 Bft)
25.11.2020 22:40 20,0 C 0,0 C 4,9 C 46 % 92 % 1021,8 hPa 0,0 l/m 0,0 km/h (0 Bft) S-SO 157 -1,1 C 0,0 C 0,0 km/h (0 Bft)
25.11.2020 22:38 20,1 C 0,2 C 4,9 C 46 % 92 % 1021,8 hPa 0,0 l/m 0,0 km/h (0 Bft) S-SO 157 -0,9 C 0,2 C 0,0 km/h (0 Bft)
25.11.2020 22:36 20,2 C 0,2 C 4,9 C 45 % 92 % 1021,8 hPa 0,0 l/m 0,0 km/h (0 Bft) S-SO 157 -0,9 C 0,2 C 0,0 km/h (0 Bft)
25.11.2020 22:34 20,4 C 0,2 C 4,9 C 45 % 92 % 1021,8 hPa 0,0 l/m 0,0 km/h (0 Bft) SO 135 -0,9 C 0,2 C 0,0 km/h (0 Bft)
25.11.2020 22:32 20,6 C 0,2 C 4,9 C 45 % 92 % 1021,8 hPa 0,0 l/m 0,0 km/h (0 Bft) SO 135 -0,9 C 0,2 C 0,0 km/h (0 Bft)
25.11.2020 22:30 20,8 C 0,2 C 4,9 C 45 % 92 % 1022,2 hPa 0,0 l/m 0,0 km/h (0 Bft) S-SO 157 -0,9 C 0,2 C 0,0 km/h (0 Bft)
25.11.2020 22:28 21,0 C 0,2 C 4,9 C 44 % 92 % 1022,2 hPa 0,0 l/m 0,0 km/h (0 Bft) S 180 -0,9 C 0,2 C 0,0 km/h (0 Bft)
25.11.2020 22:26 21,2 C 0,2 C 4,9 C 44 % 92 % 1022,2 hPa 0,0 l/m 0,0 km/h (0 Bft) SO 135 -0,9 C 0,2 C 0,0 km/h (0 Bft)
25.11.2020 22:24 21,3 C 0,3 C 4,9 C 45 % 92 % 1022,2 hPa 0,0 l/m 0,0 km/h (0 Bft) O 90 -0,8 C 0,3 C 0,0 km/h (0 Bft)
25.11.2020 22:22 21,4 C 0,3 C 4,9 C 47 % 92 % 1022,2 hPa 0,0 l/m 0,0 km/h (0 Bft) S-SO 157 -0,8 C 0,3 C 0,0 km/h (0 Bft)
25.11.2020 22:20 21,4 C 0,3 C 4,9 C 47 % 92 % 1022,2 hPa 0,0 l/m 0,0 km/h (0 Bft) SO 135 -0,8 C 0,3 C 0,0 km/h (0 Bft)
25.11.2020 22:18 21,5 C 0,3 C 4,9 C 48 % 92 % 1022,2 hPa 0,0 l/m 0,0 km/h (0 Bft) O-SO 112 -0,8 C 0,3 C 0,0 km/h (0 Bft)
25.11.2020 22:16 21,5 C 0,3 C 4,9 C 48 % 92 % 1022,2 hPa 0,0 l/m 0,0 km/h (0 Bft) S-SO 157 -0,8 C 0,3 C 0,0 km/h (0 Bft)
25.11.2020 22:14 21,5 C 0,3 C 4,9 C 48 % 92 % 1022,2 hPa 0,0 l/m 0,0 km/h (0 Bft) O-SO 112 -0,8 C 0,3 C 0,0 km/h (0 Bft)
25.11.2020 22:12 21,5 C 0,3 C 4,9 C 48 % 92 % 1022,2 hPa 0,0 l/m 0,0 km/h (0 Bft) SO 135 -0,8 C 0,3 C 0,0 km/h (0 Bft)
25.11.2020 22:10 21,5 C 0,3 C 4,9 C 48 % 92 % 1022,1 hPa 0,0 l/m 0,0 km/h (0 Bft) SO 135 -0,8 C 0,3 C 0,0 km/h (0 Bft)
25.11.2020 22:08 21,5 C 0,3 C 4,8 C 48 % 92 % 1022,1 hPa 0,0 l/m 0,0 km/h (0 Bft) S-SO 157 -0,8 C 0,3 C 0,0 km/h (0 Bft)
25.11.2020 22:06 21,5 C 0,3 C 4,8 C 48 % 92 % 1022,1 hPa 0,0 l/m 0,0 km/h (0 Bft) S-SO 157 -0,8 C 0,3 C 0,0 km/h (0 Bft)
25.11.2020 22:04 21,5 C 0,3 C 4,8 C 48 % 92 % 1022,1 hPa 0,0 l/m 0,0 km/h (0 Bft) SO 135 -0,8 C 0,3 C 0,0 km/h (0 Bft)
25.11.2020 22:02 21,5 C 0,3 C 4,8 C 48 % 92 % 1022,1 hPa 0,0 l/m 0,0 km/h (0 Bft) SO 135 -0,8 C 0,3 C 0,0 km/h (0 Bft)
25.11.2020 22:00 21,5 C 0,3 C 4,8 C 48 % 92 % 1022,1 hPa 0,0 l/m 0,0 km/h (0 Bft) S-SO 157 -0,8 C 0,3 C 0,0 km/h (0 Bft)
25.11.2020 21:58 21,5 C 0,3 C 4,7 C 48 % 92 % 1022,1 hPa 0,0 l/m 0,0 km/h (0 Bft) S-SO 157 -0,8 C 0,3 C 0,0 km/h (0 Bft)
25.11.2020 21:56 21,5 C 0,3 C 4,7 C 48 % 92 % 1022,1 hPa 0,0 l/m 0,0 km/h (0 Bft) SO 135 -0,8 C 0,3 C 0,0 km/h (0 Bft)
25.11.2020 21:54 21,5 C 0,3 C 4,7 C 48 % 92 % 1022,1 hPa 0,0 l/m 0,0 km/h (0 Bft) S-SO 157 -0,8 C 0,3 C 0,0 km/h (0 Bft)
25.11.2020 21:52 21,5 C 0,3 C 4,7 C 48 % 92 % 1022,1 hPa 0,0 l/m 0,0 km/h (0 Bft) S-SO 157 -0,8 C 0,3 C 0,0 km/h (0 Bft)
25.11.2020 21:50 21,5 C 0,3 C 4,5 C 48 % 92 % 1022,1 hPa 0,0 l/m 0,0 km/h (0 Bft) SO 135 -0,8 C 0,3 C 0,0 km/h (0 Bft)
25.11.2020 21:48 21,5 C 0,2 C 4,5 C 48 % 92 % 1022,1 hPa 0,0 l/m 0,0 km/h (0 Bft) SO 135 -0,9 C 0,2 C 0,0 km/h (0 Bft)
25.11.2020 21:46 21,5 C 0,2 C 4,7 C 48 % 92 % 1022,1 hPa 0,0 l/m 0,0 km/h (0 Bft) SO 135 -0,9 C 0,2 C 0,0 km/h (0 Bft)
25.11.2020 21:44 21,5 C 0,3 C 4,8 C 48 % 92 % 1022,1 hPa 0,0 l/m 0,0 km/h (0 Bft) S 180 -0,8 C 0,3 C 0,0 km/h (0 Bft)
25.11.2020 21:42 21,5 C 0,3 C 4,9 C 48 % 92 % 1022,1 hPa 0,0 l/m 0,0 km/h (0 Bft) O-SO 112 -0,8 C 0,3 C 0,0 km/h (0 Bft)
25.11.2020 21:40 21,5 C 0,3 C 4,9 C 48 % 92 % 1022,1 hPa 0,0 l/m 0,0 km/h (0 Bft) SO 135 -0,8 C 0,3 C 0,0 km/h (0 Bft)
25.11.2020 21:38 21,5 C 0,3 C 5,0 C 48 % 92 % 1022,1 hPa 0,0 l/m 0,0 km/h (0 Bft) O-SO 112 -0,8 C 0,3 C 0,0 km/h (0 Bft)
25.11.2020 21:36 21,4 C 0,3 C 5,0 C 48 % 92 % 1022,1 hPa 0,0 l/m 0,0 km/h (0 Bft) O-NO 67 -0,8 C 0,3 C 0,0 km/h (0 Bft)
25.11.2020 21:34 21,4 C 0,3 C 4,9 C 48 % 92 % 1022,1 hPa 0,0 l/m 0,0 km/h (0 Bft) SO 135 -0,8 C 0,3 C 0,0 km/h (0 Bft)
25.11.2020 21:32 21,4 C 0,3 C 4,9 C 48 % 92 % 1022,1 hPa 0,0 l/m 0,0 km/h (0 Bft) S-SO 157 -0,8 C 0,3 C 0,0 km/h (0 Bft)
25.11.2020 21:30 21,4 C 0,3 C 4,9 C 48 % 92 % 1022,1 hPa 0,0 l/m 0,0 km/h (0 Bft) O 90 -0,8 C 0,3 C 0,0 km/h (0 Bft)
25.11.2020 21:28 21,4 C 0,4 C 4,9 C 48 % 92 % 1022,1 hPa 0,0 l/m 0,0 km/h (0 Bft) SO 135 -0,7 C 0,4 C 0,0 km/h (0 Bft)
25.11.2020 21:26 21,4 C 0,4 C 4,9 C 48 % 92 % 1022,1 hPa 0,0 l/m 0,0 km/h (0 Bft) SO 135 -0,7 C 0,4 C 0,0 km/h (0 Bft)
25.11.2020 21:24 21,2 C 0,4 C 4,9 C 48 % 92 % 1022,1 hPa 0,0 l/m 0,0 km/h (0 Bft) SO 135 -0,7 C 0,4 C 0,0 km/h (0 Bft)
25.11.2020 21:22 21,2 C 0,4 C 4,9 C 48 % 92 % 1022,1 hPa 0,0 l/m 0,0 km/h (0 Bft) S-SO 157 -0,7 C 0,4 C 0,0 km/h (0 Bft)
25.11.2020 21:20 21,2 C 0,4 C 4,9 C 48 % 92 % 1022,1 hPa 0,0 l/m 0,0 km/h (0 Bft) S-SO 157 -0,7 C 0,4 C 0,0 km/h (0 Bft)
25.11.2020 21:18 21,2 C 0,4 C 4,9 C 47 % 92 % 1022,1 hPa 0,0 l/m 0,0 km/h (0 Bft) S-SO 157 -0,7 C 0,4 C 0,0 km/h (0 Bft)
25.11.2020 21:16 21,1 C 0,4 C 4,9 C 47 % 92 % 1022,1 hPa 0,0 l/m 0,0 km/h (0 Bft) S-SO 157 -0,7 C 0,4 C 0,0 km/h (0 Bft)
25.11.2020 21:14 21,1 C 0,4 C 4,9 C 47 % 92 % 1022,1 hPa 0,0 l/m 0,0 km/h (0 Bft) S-SO 157 -0,7 C 0,4 C 0,0 km/h (0 Bft)
25.11.2020 21:12 21,1 C 0,4 C 4,9 C 46 % 92 % 1022,1 hPa 0,0 l/m 0,0 km/h (0 Bft) S-SO 157 -0,7 C 0,4 C 0,0 km/h (0 Bft)
25.11.2020 21:10 21,1 C 0,4 C 4,9 C 45 % 92 % 1023,2 hPa 0,0 l/m 0,0 km/h (0 Bft) S-SO 157 -0,7 C 0,4 C 0,0 km/h (0 Bft)
25.11.2020 21:08 21,1 C 0,4 C 4,8 C 45 % 92 % 1023,2 hPa 0,0 l/m 0,0 km/h (0 Bft) S 180 -0,7 C 0,4 C 0,0 km/h (0 Bft)
25.11.2020 21:06 21,2 C 0,4 C 4,8 C 45 % 92 % 1023,2 hPa 0,0 l/m 0,0 km/h (0 Bft) S-SO 157 -0,7 C 0,4 C 0,0 km/h (0 Bft)
25.11.2020 21:04 21,2 C 0,4 C 4,8 C 45 % 92 % 1023,2 hPa 0,0 l/m 0,0 km/h (0 Bft) NO 45 -0,7 C 0,4 C 0,0 km/h (0 Bft)
25.11.2020 21:02 21,2 C 0,4 C 4,8 C 45 % 92 % 1023,2 hPa 0,0 l/m 0,0 km/h (0 Bft) S-SO 157 -0,7 C 0,4 C 0,0 km/h (0 Bft)
25.11.2020 21:00 21,2 C 0,4 C 4,8 C 45 % 92 % 1023,2 hPa 0,0 l/m 0,0 km/h (0 Bft) SO 135 -0,7 C 0,4 C 0,0 km/h (0 Bft)
25.11.2020 20:58 21,2 C 0,4 C 4,7 C 44 % 92 % 1023,2 hPa 0,0 l/m 0,0 km/h (0 Bft) S-SO 157 -0,7 C 0,4 C 0,0 km/h (0 Bft)
25.11.2020 20:56 21,2 C 0,4 C 4,8 C 44 % 92 % 1023,2 hPa 0,0 l/m 0,0 km/h (0 Bft) S-SO 157 -0,7 C 0,4 C 0,0 km/h (0 Bft)
25.11.2020 20:54 21,3 C 0,4 C 4,8 C 44 % 92 % 1023,2 hPa 0,0 l/m 0,0 km/h (0 Bft) SO 135 -0,7 C 0,4 C 0,0 km/h (0 Bft)
25.11.2020 20:52 21,4 C 0,4 C 4,7 C 44 % 92 % 1023,2 hPa 0,0 l/m 0,0 km/h (0 Bft) O-NO 67 -0,7 C 0,4 C 0,0 km/h (0 Bft)
25.11.2020 20:50 21,4 C 0,4 C 4,7 C 44 % 92 % 1022,4 hPa 0,0 l/m 0,0 km/h (0 Bft) SO 135 -0,7 C 0,4 C 0,0 km/h (0 Bft)
25.11.2020 20:48 21,6 C 0,4 C 4,7 C 43 % 92 % 1022,4 hPa 0,0 l/m 0,0 km/h (0 Bft) NO 45 -0,7 C 0,4 C 0,0 km/h (0 Bft)
25.11.2020 20:46 21,7 C 0,4 C 4,5 C 43 % 92 % 1022,4 hPa 0,0 l/m 0,0 km/h (0 Bft) S 180 -0,7 C 0,4 C 0,0 km/h (0 Bft)
25.11.2020 20:44 21,8 C 0,4 C 4,5 C 43 % 92 % 1022,4 hPa 0,0 l/m 0,0 km/h (0 Bft) O-SO 112 -0,7 C 0,4 C 0,0 km/h (0 Bft)
25.11.2020 20:42 21,9 C 0,4 C 4,4 C 42 % 92 % 1022,4 hPa 0,0 l/m 0,0 km/h (0 Bft) S-SO 157 -0,7 C 0,4 C 0,0 km/h (0 Bft)
25.11.2020 20:40 22,0 C 0,4 C 4,5 C 43 % 92 % 1022,4 hPa 0,0 l/m 0,0 km/h (0 Bft) O-NO 67 -0,7 C 0,4 C 0,0 km/h (0 Bft)
25.11.2020 20:38 22,1 C 0,4 C 4,5 C 44 % 92 % 1022,4 hPa 0,0 l/m 0,0 km/h (0 Bft) O-NO 67 -0,7 C 0,4 C 0,0 km/h (0 Bft)
25.11.2020 20:36 22,1 C 0,4 C 4,4 C 45 % 92 % 1022,4 hPa 0,0 l/m 0,0 km/h (0 Bft) O 90 -0,7 C 0,4 C 0,0 km/h (0 Bft)
25.11.2020 20:34 22,1 C 0,4 C 4,4 C 45 % 92 % 1022,4 hPa 0,0 l/m 0,0 km/h (0 Bft) SW 225 -0,7 C 0,4 C 0,0 km/h (0 Bft)
25.11.2020 20:32 22,1 C 0,4 C 4,4 C 45 % 92 % 1022,4 hPa 0,0 l/m 0,0 km/h (0 Bft) O-SO 112 -0,7 C 0,4 C 0,0 km/h (0 Bft)
25.11.2020 20:30 22,1 C 0,4 C 4,5 C 45 % 92 % 1022,6 hPa 0,0 l/m 0,0 km/h (0 Bft) NO 45 -0,7 C 0,4 C 0,0 km/h (0 Bft)
25.11.2020 20:28 22,1 C 0,4 C 4,5 C 45 % 92 % 1022,6 hPa 0,0 l/m 0,0 km/h (0 Bft) SO 135 -0,7 C 0,4 C 0,0 km/h (0 Bft)
25.11.2020 20:26 22,1 C 0,4 C 4,5 C 45 % 92 % 1022,6 hPa 0,0 l/m 0,0 km/h (0 Bft) O-NO 67 -0,7 C 0,4 C 0,0 km/h (0 Bft)
25.11.2020 20:24 22,1 C 0,4 C 4,5 C 45 % 92 % 1022,6 hPa 0,0 l/m 0,0 km/h (0 Bft) O-NO 67 -0,7 C 0,4 C 0,0 km/h (0 Bft)
25.11.2020 20:22 22,0 C 0,4 C 4,7 C 45 % 92 % 1022,6 hPa 0,0 l/m 0,0 km/h (0 Bft) O 90 -0,7 C 0,4 C 0,0 km/h (0 Bft)
25.11.2020 20:20 22,0 C 0,4 C 4,7 C 45 % 92 % 1022,6 hPa 0,0 l/m 0,0 km/h (0 Bft) O-NO 67 -0,7 C 0,4 C 0,0 km/h (0 Bft)
25.11.2020 20:18 22,0 C 0,4 C 4,5 C 45 % 92 % 1022,6 hPa 0,0 l/m 0,0 km/h (0 Bft) W-NW 292 -0,7 C 0,4 C 0,0 km/h (0 Bft)
25.11.2020 20:16 22,0 C 0,4 C 4,7 C 45 % 92 % 1022,6 hPa 0,0 l/m 0,0 km/h (0 Bft) SO 135 -0,7 C 0,4 C 0,0 km/h (0 Bft)
25.11.2020 20:14 22,0 C 0,4 C 4,7 C 45 % 92 % 1022,6 hPa 0,0 l/m 0,0 km/h (0 Bft) SO 135 -0,7 C 0,4 C 0,0 km/h (0 Bft)
25.11.2020 20:12 22,0 C 0,4 C 4,8 C 45 % 92 % 1022,6 hPa 0,0 l/m 0,0 km/h (0 Bft) N 360 -0,7 C 0,4 C 0,0 km/h (0 Bft)
25.11.2020 20:10 22,0 C 0,4 C 4,8 C 45 % 92 % 1022,2 hPa 0,0 l/m 0,0 km/h (0 Bft) S 180 -0,7 C 0,4 C 0,0 km/h (0 Bft)
25.11.2020 20:08 22,0 C 0,4 C 4,8 C 45 % 92 % 1022,2 hPa 0,0 l/m 0,0 km/h (0 Bft) O-SO 112 -0,7 C 0,4 C 0,0 km/h (0 Bft)
25.11.2020 20:06 22,0 C 0,4 C 4,8 C 45 % 92 % 1022,2 hPa 0,0 l/m 0,0 km/h (0 Bft) O-SO 112 -0,7 C 0,4 C 0,0 km/h (0 Bft)
25.11.2020 20:04 21,9 C 0,4 C 4,8 C 45 % 92 % 1022,2 hPa 0,0 l/m 0,0 km/h (0 Bft) SO 135 -0,7 C 0,4 C 0,0 km/h (0 Bft)
25.11.2020 20:02 21,9 C 0,5 C 4,9 C 45 % 92 % 1022,2 hPa 0,0 l/m 0,0 km/h (0 Bft) NO 45 -0,6 C 0,5 C 0,0 km/h (0 Bft)
25.11.2020 20:00 21,9 C 0,5 C 5,0 C 45 % 92 % 1022,2 hPa 0,0 l/m 0,0 km/h (0 Bft) NO 45 -0,6 C 0,5 C 0,0 km/h (0 Bft)
25.11.2020 19:58 21,8 C 0,5 C 5,0 C 45 % 92 % 1022,2 hPa 0,0 l/m 0,0 km/h (0 Bft) NO 45 -0,6 C 0,5 C 0,0 km/h (0 Bft)
25.11.2020 19:56 21,8 C 0,5 C 5,0 C 46 % 92 % 1022,2 hPa 0,0 l/m 0,0 km/h (0 Bft) N-NW 337 -0,6 C 0,5 C 0,0 km/h (0 Bft)
25.11.2020 19:54 21,8 C 0,5 C 5,0 C 46 % 92 % 1022,2 hPa 0,0 l/m 0,0 km/h (0 Bft) S-SO 157 -0,6 C 0,5 C 0,0 km/h (0 Bft)
25.11.2020 19:52 21,7 C 0,6 C 5,0 C 46 % 92 % 1022,2 hPa 0,0 l/m 0,0 km/h (0 Bft) SO 135 -0,5 C 0,6 C 0,0 km/h (0 Bft)
25.11.2020 19:50 21,6 C 0,6 C 5,0 C 46 % 92 % 1021,5 hPa 0,0 l/m 0,0 km/h (0 Bft) S-SW 202 -0,5 C 0,6 C 0,0 km/h (0 Bft)
25.11.2020 19:48 21,6 C 0,6 C 5,0 C 46 % 92 % 1021,5 hPa 0,0 l/m 0,0 km/h (0 Bft) S-SO 157 -0,5 C 0,6 C 0,0 km/h (0 Bft)
25.11.2020 19:46 21,5 C 0,6 C 5,0 C 46 % 92 % 1021,5 hPa 0,0 l/m 0,0 km/h (0 Bft) S-SO 157 -0,5 C 0,6 C 0,0 km/h (0 Bft)
25.11.2020 19:44 21,4 C 0,6 C 5,0 C 46 % 92 % 1021,5 hPa 0,0 l/m 0,0 km/h (0 Bft) S 180 -0,5 C 0,6 C 0,0 km/h (0 Bft)
25.11.2020 19:42 21,2 C 0,6 C 5,1 C 45 % 92 % 1021,5 hPa 0,0 l/m 0,0 km/h (0 Bft) SO 135 -0,5 C 0,6 C 0,0 km/h (0 Bft)
25.11.2020 19:40 21,2 C 0,6 C 5,1 C 46 % 92 % 1021,5 hPa 0,0 l/m 0,0 km/h (0 Bft) S 180 -0,5 C 0,6 C 0,0 km/h (0 Bft)
25.11.2020 19:38 21,2 C 0,6 C 5,1 C 46 % 92 % 1021,5 hPa 0,0 l/m 0,0 km/h (0 Bft) S-SO 157 -0,5 C 0,6 C 0,0 km/h (0 Bft)
25.11.2020 19:36 21,1 C 0,6 C 5,1 C 46 % 92 % 1021,5 hPa 0,0 l/m 0,0 km/h (0 Bft) S-SO 157 -0,5 C 0,6 C 0,0 km/h (0 Bft)
25.11.2020 19:34 21,0 C 0,6 C 5,1 C 46 % 92 % 1021,5 hPa 0,0 l/m 0,0 km/h (0 Bft) NO 45 -0,5 C 0,6 C 0,0 km/h (0 Bft)
25.11.2020 19:32 20,8 C 0,6 C 5,1 C 46 % 92 % 1021,5 hPa 0,0 l/m 0,0 km/h (0 Bft) SO 135 -0,5 C 0,6 C 0,0 km/h (0 Bft)
25.11.2020 19:30 20,8 C 0,6 C 5,1 C 46 % 92 % 1021,2 hPa 0,0 l/m 0,0 km/h (0 Bft) S-SO 157 -0,5 C 0,6 C 0,0 km/h (0 Bft)
25.11.2020 19:28 20,7 C 0,6 C 5,1 C 46 % 92 % 1021,2 hPa 0,0 l/m 0,0 km/h (0 Bft) SO 135 -0,5 C 0,6 C 0,0 km/h (0 Bft)
25.11.2020 19:26 20,6 C 0,6 C 5,1 C 46 % 92 % 1021,2 hPa 0,0 l/m 0,0 km/h (0 Bft) S-SO 157 -0,5 C 0,6 C 0,0 km/h (0 Bft)
25.11.2020 19:24 20,4 C 0,6 C 5,1 C 46 % 92 % 1021,2 hPa 0,0 l/m 0,0 km/h (0 Bft) S-SO 157 -0,5 C 0,6 C 0,0 km/h (0 Bft)
25.11.2020 19:22 20,4 C 0,6 C 5,1 C 46 % 92 % 1021,2 hPa 0,0 l/m 0,0 km/h (0 Bft) O-NO 67 -0,5 C 0,6 C 0,0 km/h (0 Bft)
25.11.2020 19:20 20,3 C 0,6 C 5,1 C 46 % 92 % 1021,2 hPa 0,0 l/m 0,0 km/h (0 Bft) O-SO 112 -0,5 C 0,6 C 0,0 km/h (0 Bft)
25.11.2020 19:18 20,2 C 0,6 C 5,1 C 46 % 92 % 1021,2 hPa 0,0 l/m 0,0 km/h (0 Bft) NW 315 -0,5 C 0,6 C 0,0 km/h (0 Bft)
25.11.2020 19:16 20,2 C 0,6 C 5,1 C 46 % 92 % 1021,2 hPa 0,0 l/m 0,0 km/h (0 Bft) S-SO 157 -0,5 C 0,6 C 0,0 km/h (0 Bft)
25.11.2020 19:14 20,2 C 0,6 C 5,1 C 45 % 92 % 1021,2 hPa 0,0 l/m 0,0 km/h (0 Bft) S-SO 157 -0,5 C 0,6 C 0,0 km/h (0 Bft)
25.11.2020 19:12 20,2 C 0,6 C 5,1 C 45 % 92 % 1021,2 hPa 0,0 l/m 0,0 km/h (0 Bft) SO 135 -0,5 C 0,6 C 0,0 km/h (0 Bft)
25.11.2020 19:10 20,2 C 0,7 C 5,1 C 45 % 91 % 1021,3 hPa 0,0 l/m 0,0 km/h (0 Bft) S-SO 157 -0,6 C 0,7 C 0,0 km/h (0 Bft)
25.11.2020 19:08 20,2 C 0,7 C 5,1 C 45 % 91 % 1021,3 hPa 0,0 l/m 0,0 km/h (0 Bft) SO 135 -0,6 C 0,7 C 0,0 km/h (0 Bft)
25.11.2020 19:06 20,2 C 0,7 C 5,1 C 45 % 91 % 1021,3 hPa 0,0 l/m 0,0 km/h (0 Bft) S-SO 157 -0,6 C 0,7 C 0,0 km/h (0 Bft)
25.11.2020 19:04 20,2 C 0,7 C 5,1 C 45 % 91 % 1021,3 hPa 0,0 l/m 0,0 km/h (0 Bft) S-SO 157 -0,6 C 0,7 C 0,0 km/h (0 Bft)
25.11.2020 19:02 20,2 C 0,7 C 5,1 C 45 % 91 % 1021,3 hPa 0,0 l/m 0,0 km/h (0 Bft) S-SO 157 -0,6 C 0,7 C 0,0 km/h (0 Bft)
25.11.2020 19:00 20,2 C 0,7 C 5,0 C 45 % 91 % 1021,3 hPa 0,0 l/m 0,0 km/h (0 Bft) S 180 -0,6 C 0,7 C 0,0 km/h (0 Bft)
25.11.2020 18:58 20,2 C 0,7 C 5,0 C 45 % 91 % 1021,3 hPa 0,0 l/m 0,0 km/h (0 Bft) SO 135 -0,6 C 0,7 C 0,0 km/h (0 Bft)
25.11.2020 18:56 20,2 C 0,7 C 5,0 C 45 % 91 % 1021,3 hPa 0,0 l/m 0,0 km/h (0 Bft) SO 135 -0,6 C 0,7 C 0,0 km/h (0 Bft)
25.11.2020 18:54 20,3 C 0,7 C 5,0 C 44 % 91 % 1021,3 hPa 0,0 l/m 0,0 km/h (0 Bft) S 180 -0,6 C 0,7 C 0,0 km/h (0 Bft)
25.11.2020 18:52 20,4 C 0,7 C 5,0 C 44 % 91 % 1021,3 hPa 0,0 l/m 0,0 km/h (0 Bft) S-SW 202 -0,6 C 0,7 C 0,0 km/h (0 Bft)
25.11.2020 18:50 20,5 C 0,7 C 4,9 C 44 % 91 % 1021,9 hPa 0,0 l/m 0,0 km/h (0 Bft) S-SO 157 -0,6 C 0,7 C 0,0 km/h (0 Bft)
25.11.2020 18:48 20,6 C 0,7 C 4,9 C 44 % 91 % 1021,9 hPa 0,0 l/m 0,0 km/h (0 Bft) S 180 -0,6 C 0,7 C 0,0 km/h (0 Bft)
25.11.2020 18:46 20,8 C 0,7 C 4,9 C 44 % 91 % 1021,9 hPa 0,0 l/m 0,0 km/h (0 Bft) O-SO 112 -0,6 C 0,7 C 0,0 km/h (0 Bft)
25.11.2020 18:44 20,8 C 0,7 C 5,0 C 44 % 91 % 1021,9 hPa 0,0 l/m 0,0 km/h (0 Bft) O-NO 67 -0,6 C 0,7 C 0,0 km/h (0 Bft)
25.11.2020 18:42 20,9 C 0,7 C 5,1 C 43 % 91 % 1021,9 hPa 0,0 l/m 0,0 km/h (0 Bft) O-SO 112 -0,6 C 0,7 C 0,0 km/h (0 Bft)
25.11.2020 18:40 21,0 C 0,7 C 5,1 C 43 % 91 % 1021,9 hPa 0,0 l/m 0,0 km/h (0 Bft) SO 135 -0,6 C 0,7 C 0,0 km/h (0 Bft)
25.11.2020 18:38 21,0 C 0,7 C 5,1 C 43 % 91 % 1021,9 hPa 0,0 l/m 0,0 km/h (0 Bft) S-SO 157 -0,6 C 0,7 C 0,0 km/h (0 Bft)
25.11.2020 18:36 21,1 C 0,7 C 5,1 C 43 % 91 % 1021,9 hPa 0,0 l/m 0,0 km/h (0 Bft) SO 135 -0,6 C 0,7 C 0,0 km/h (0 Bft)
25.11.2020 18:34 21,2 C 0,7 C 5,1 C 43 % 91 % 1021,9 hPa 0,0 l/m 0,0 km/h (0 Bft) S-SO 157 -0,6 C 0,7 C 0,0 km/h (0 Bft)
25.11.2020 18:32 21,2 C 0,7 C 5,1 C 43 % 91 % 1021,9 hPa 0,0 l/m 0,0 km/h (0 Bft) SO 135 -0,6 C 0,7 C 0,0 km/h (0 Bft)
25.11.2020 18:30 21,2 C 0,7 C 5,1 C 43 % 91 % 1021,1 hPa 0,0 l/m 0,0 km/h (0 Bft) S 180 -0,6 C 0,7 C 0,0 km/h (0 Bft)
25.11.2020 18:28 21,2 C 0,7 C 5,1 C 42 % 91 % 1021,1 hPa 0,0 l/m 0,0 km/h (0 Bft) SO 135 -0,6 C 0,7 C 0,0 km/h (0 Bft)
25.11.2020 18:26 21,4 C 0,7 C 5,1 C 42 % 91 % 1021,1 hPa 0,0 l/m 0,0 km/h (0 Bft) SO 135 -0,6 C 0,7 C 0,0 km/h (0 Bft)
25.11.2020 18:24 21,4 C 0,7 C 5,1 C 43 % 91 % 1021,1 hPa 0,0 l/m 0,0 km/h (0 Bft) S 180 -0,6 C 0,7 C 0,0 km/h (0 Bft)
25.11.2020 18:22 21,4 C 0,7 C 5,1 C 44 % 91 % 1021,1 hPa 0,0 l/m 0,0 km/h (0 Bft) S-SO 157 -0,6 C 0,7 C 0,0 km/h (0 Bft)
25.11.2020 18:20 21,4 C 0,7 C 5,0 C 44 % 91 % 1021,1 hPa 0,0 l/m 0,2 km/h (0 Bft) SW 225 -0,6 C 0,7 C 0,0 km/h (0 Bft)
25.11.2020 18:18 21,2 C 0,7 C 5,0 C 44 % 91 % 1021,1 hPa 0,0 l/m 0,2 km/h (0 Bft) SO 135 -0,6 C 0,7 C 0,0 km/h (0 Bft)
25.11.2020 18:16 21,2 C 0,7 C 5,0 C 44 % 91 % 1021,1 hPa 0,0 l/m 0,2 km/h (0 Bft) SO 135 -0,6 C 0,7 C 0,0 km/h (0 Bft)
25.11.2020 18:14 21,2 C 0,7 C 5,0 C 44 % 91 % 1021,1 hPa 0,0 l/m 0,2 km/h (0 Bft) O-NO 67 -0,6 C 0,7 C 0,0 km/h (0 Bft)
25.11.2020 18:12 21,1 C 0,7 C 5,0 C 44 % 91 % 1021,1 hPa 0,0 l/m 0,2 km/h (0 Bft) O-SO 112 -0,6 C 0,7 C 0,0 km/h (0 Bft)
25.11.2020 18:10 21,0 C 0,7 C 5,0 C 44 % 91 % 1021,1 hPa 0,0 l/m 0,2 km/h (0 Bft) N-NO 22 -0,6 C 0,7 C 0,0 km/h (0 Bft)
25.11.2020 18:08 21,0 C 0,7 C 5,0 C 44 % 91 % 1021,1 hPa 0,0 l/m 0,0 km/h (0 Bft) SW 225 -0,6 C 0,7 C 0,0 km/h (0 Bft)
25.11.2020 18:06 21,0 C 0,7 C 5,0 C 44 % 91 % 1021,1 hPa 0,0 l/m 0,0 km/h (0 Bft) S 180 -0,6 C 0,7 C 0,0 km/h (0 Bft)
25.11.2020 18:04 20,9 C 0,7 C 5,0 C 43 % 91 % 1021,1 hPa 0,0 l/m 0,0 km/h (0 Bft) S 180 -0,6 C 0,7 C 0,0 km/h (0 Bft)
25.11.2020 18:02 21,0 C 0,7 C 5,0 C 43 % 91 % 1021,1 hPa 0,0 l/m 0,0 km/h (0 Bft) O-SO 112 -0,6 C 0,7 C 0,0 km/h (0 Bft)
25.11.2020 18:00 21,0 C 0,7 C 5,0 C 43 % 91 % 1021,1 hPa 0,0 l/m 0,0 km/h (0 Bft) S-SO 157 -0,6 C 0,7 C 0,0 km/h (0 Bft)
25.11.2020 17:58 21,0 C 0,7 C 5,0 C 44 % 91 % 1021,1 hPa 0,0 l/m 0,0 km/h (0 Bft) S-SO 157 -0,6 C 0,7 C 0,0 km/h (0 Bft)
25.11.2020 17:56 21,0 C 0,7 C 5,0 C 44 % 91 % 1021,1 hPa 0,0 l/m 0,0 km/h (0 Bft) S-SO 157 -0,6 C 0,7 C 0,0 km/h (0 Bft)
25.11.2020 17:54 20,9 C 0,7 C 5,0 C 44 % 91 % 1021,1 hPa 0,0 l/m 0,0 km/h (0 Bft) SO 135 -0,6 C 0,7 C 0,0 km/h (0 Bft)
25.11.2020 17:52 20,9 C 0,7 C 5,0 C 44 % 91 % 1021,1 hPa 0,0 l/m 0,0 km/h (0 Bft) NO 45 -0,6 C 0,7 C 0,0 km/h (0 Bft)
25.11.2020 17:50 20,9 C 0,7 C 5,1 C 43 % 91 % 1021,1 hPa 0,0 l/m 0,0 km/h (0 Bft) NW 315 -0,6 C 0,7 C 0,0 km/h (0 Bft)
25.11.2020 17:48 20,8 C 0,7 C 5,1 C 43 % 91 % 1021,1 hPa 0,0 l/m 0,7 km/h (0 Bft) S-SO 157 -0,6 C 0,7 C 0,0 km/h (0 Bft)
25.11.2020 17:46 20,8 C 0,7 C 5,2 C 43 % 91 % 1021,1 hPa 0,0 l/m 0,7 km/h (0 Bft) S 180 -0,6 C 0,7 C 0,0 km/h (0 Bft)
25.11.2020 17:44 20,8 C 0,7 C 5,2 C 43 % 91 % 1021,1 hPa 0,0 l/m 0,7 km/h (0 Bft) S-SO 157 -0,6 C 0,7 C 0,0 km/h (0 Bft)
25.11.2020 17:42 20,7 C 0,7 C 5,2 C 43 % 91 % 1021,1 hPa 0,0 l/m 0,7 km/h (0 Bft) S 180 -0,6 C 0,7 C 0,0 km/h (0 Bft)
25.11.2020 17:40 20,6 C 0,7 C 5,2 C 43 % 91 % 1021,1 hPa 0,0 l/m 0,7 km/h (0 Bft) SO 135 -0,6 C 0,7 C 0,0 km/h (0 Bft)
25.11.2020 17:38 20,6 C 0,7 C 5,2 C 43 % 91 % 1021,1 hPa 0,0 l/m 0,0 km/h (0 Bft) O-SO 112 -0,6 C 0,7 C 0,0 km/h (0 Bft)
25.11.2020 17:36 20,5 C 0,7 C 5,2 C 43 % 91 % 1021,1 hPa 0,0 l/m 0,0 km/h (0 Bft) S-SW 202 -0,6 C 0,7 C 0,0 km/h (0 Bft)
25.11.2020 17:34 20,4 C 0,8 C 5,2 C 43 % 91 % 1021,1 hPa 0,0 l/m 0,0 km/h (0 Bft) S 180 -0,5 C 0,8 C 0,0 km/h (0 Bft)
25.11.2020 17:32 20,4 C 0,8 C 5,1 C 43 % 91 % 1021,1 hPa 0,0 l/m 0,0 km/h (0 Bft) SO 135 -0,5 C 0,8 C 0,0 km/h (0 Bft)
25.11.2020 17:30 20,3 C 0,7 C 5,1 C 42 % 91 % 1020,9 hPa 0,0 l/m 0,0 km/h (0 Bft) SO 135 -0,6 C 0,7 C 0,0 km/h (0 Bft)
25.11.2020 17:28 20,2 C 0,7 C 5,1 C 42 % 91 % 1020,9 hPa 0,0 l/m 0,0 km/h (0 Bft) SO 135 -0,6 C 0,7 C 0,0 km/h (0 Bft)
25.11.2020 17:26 20,2 C 0,7 C 5,1 C 42 % 91 % 1020,9 hPa 0,0 l/m 0,2 km/h (0 Bft) S-SO 157 -0,6 C 0,7 C 0,0 km/h (0 Bft)
25.11.2020 17:24 20,2 C 0,7 C 5,1 C 41 % 91 % 1020,9 hPa 0,0 l/m 1,2 km/h (1 Bft) SO 135 -0,6 C 0,7 C 13,8 km/h (3 Bft)
25.11.2020 17:22 20,3 C 0,7 C 5,1 C 41 % 91 % 1020,9 hPa 0,0 l/m 1,2 km/h (1 Bft) S-SO 157 -0,6 C 0,7 C 0,0 km/h (0 Bft)
25.11.2020 17:20 20,4 C 0,7 C 5,1 C 41 % 91 % 1020,9 hPa 0,0 l/m 1,2 km/h (1 Bft) S-SO 157 -0,6 C 0,7 C 0,0 km/h (0 Bft)
25.11.2020 17:18 20,5 C 0,7 C 5,1 C 42 % 91 % 1020,9 hPa 0,0 l/m 1,2 km/h (1 Bft) S 180 -0,6 C 0,7 C 0,0 km/h (0 Bft)
25.11.2020 17:16 20,6 C 0,7 C 5,1 C 43 % 91 % 1020,9 hPa 0,0 l/m 1,2 km/h (1 Bft) S-SW 202 -0,6 C 0,7 C 0,0 km/h (0 Bft)
25.11.2020 17:14 20,6 C 0,8 C 5,1 C 43 % 91 % 1020,9 hPa 0,0 l/m 0,0 km/h (0 Bft) SO 135 -0,5 C 0,8 C 0,0 km/h (0 Bft)
25.11.2020 17:12 20,7 C 0,7 C 5,1 C 43 % 91 % 1020,9 hPa 0,0 l/m 0,0 km/h (0 Bft) S-SO 157 -0,6 C 0,7 C 0,0 km/h (0 Bft)
25.11.2020 17:10 20,8 C 0,7 C 5,1 C 42 % 91 % 1021,6 hPa 0,0 l/m 0,0 km/h (0 Bft) S-SO 157 -0,6 C 0,7 C 0,0 km/h (0 Bft)
25.11.2020 17:08 20,9 C 0,7 C 5,1 C 42 % 91 % 1021,6 hPa 0,0 l/m 0,0 km/h (0 Bft) S 180 -0,6 C 0,7 C 0,0 km/h (0 Bft)
25.11.2020 17:06 21,0 C 0,7 C 5,1 C 42 % 91 % 1021,6 hPa 0,0 l/m 0,0 km/h (0 Bft) S 180 -0,6 C 0,7 C 0,0 km/h (0 Bft)
25.11.2020 17:04 21,0 C 0,7 C 5,1 C 42 % 91 % 1021,6 hPa 0,0 l/m 0,0 km/h (0 Bft) S 180 -0,6 C 0,7 C 0,0 km/h (0 Bft)
25.11.2020 17:02 21,1 C 0,7 C 5,0 C 42 % 91 % 1021,6 hPa 0,0 l/m 0,0 km/h (0 Bft) S 180 -0,6 C 0,7 C 0,0 km/h (0 Bft)
25.11.2020 17:00 21,2 C 0,7 C 5,0 C 42 % 91 % 1021,6 hPa 0,0 l/m 0,0 km/h (0 Bft) SO 135 -0,6 C 0,7 C 0,0 km/h (0 Bft)
25.11.2020 16:58 21,2 C 0,7 C 5,0 C 41 % 91 % 1021,6 hPa 0,0 l/m 0,0 km/h (0 Bft) SO 135 -0,6 C 0,7 C 0,0 km/h (0 Bft)
25.11.2020 16:56 21,4 C 0,7 C 5,1 C 41 % 91 % 1021,6 hPa 0,0 l/m 0,0 km/h (0 Bft) NO 45 -0,6 C 0,7 C 0,0 km/h (0 Bft)
25.11.2020 16:54 21,5 C 0,7 C 5,1 C 41 % 91 % 1021,6 hPa 0,0 l/m 0,0 km/h (0 Bft) S-SO 157 -0,6 C 0,7 C 0,0 km/h (0 Bft)
25.11.2020 16:52 21,6 C 0,7 C 5,1 C 41 % 91 % 1021,6 hPa 0,0 l/m 0,0 km/h (0 Bft) S-SO 157 -0,6 C 0,7 C 0,0 km/h (0 Bft)
25.11.2020 16:50 21,7 C 0,7 C 5,1 C 41 % 91 % 1022,9 hPa 0,0 l/m 0,0 km/h (0 Bft) S-SO 157 -0,6 C 0,7 C 0,0 km/h (0 Bft)
25.11.2020 16:48 21,9 C 0,7 C 5,0 C 41 % 91 % 1022,9 hPa 0,0 l/m 0,0 km/h (0 Bft) SO 135 -0,6 C 0,7 C 0,0 km/h (0 Bft)
25.11.2020 16:46 22,0 C 0,7 C 5,0 C 40 % 91 % 1022,9 hPa 0,0 l/m 0,5 km/h (0 Bft) SO 135 -0,6 C 0,7 C 0,0 km/h (0 Bft)
25.11.2020 16:44 22,1 C 0,7 C 4,9 C 40 % 91 % 1022,9 hPa 0,0 l/m 0,5 km/h (0 Bft) S-SO 157 -0,6 C 0,7 C 12,6 km/h (3 Bft)
25.11.2020 16:42 22,3 C 0,7 C 4,9 C 40 % 91 % 1022,9 hPa 0,0 l/m 0,5 km/h (0 Bft) SO 135 -0,6 C 0,7 C 0,0 km/h (0 Bft)
25.11.2020 16:40 22,4 C 0,7 C 4,9 C 40 % 91 % 1022,9 hPa 0,0 l/m 0,7 km/h (0 Bft) SO 135 -0,6 C 0,7 C 0,0 km/h (0 Bft)
25.11.2020 16:38 22,6 C 0,7 C 4,8 C 39 % 91 % 1022,9 hPa 0,0 l/m 1,0 km/h (0 Bft) N-NO 22 -0,6 C 0,7 C 3,1 km/h (1 Bft)
25.11.2020 16:36 22,7 C 0,7 C 4,8 C 39 % 91 % 1022,9 hPa 0,0 l/m 1,0 km/h (0 Bft) N-NW 337 -0,6 C 0,7 C 3,1 km/h (1 Bft)
25.11.2020 16:34 22,9 C 0,7 C 4,8 C 39 % 91 % 1022,9 hPa 0,0 l/m 0,5 km/h (0 Bft) SO 135 -0,6 C 0,7 C 11,8 km/h (2 Bft)
25.11.2020 16:32 23,1 C 0,8 C 4,9 C 38 % 91 % 1022,9 hPa 0,0 l/m 0,5 km/h (0 Bft) W 270 -0,5 C 0,8 C 0,0 km/h (0 Bft)
25.11.2020 16:30 23,3 C 0,8 C 4,9 C 38 % 91 % 1024,1 hPa 0,0 l/m 0,5 km/h (0 Bft) O-SO 112 -0,5 C 0,8 C 0,0 km/h (0 Bft)
25.11.2020 16:28 23,5 C 0,9 C 4,9 C 37 % 91 % 1024,1 hPa 0,0 l/m 0,0 km/h (0 Bft) SO 135 -0,4 C 0,9 C 0,0 km/h (0 Bft)
25.11.2020 16:26 23,8 C 0,8 C 4,9 C 37 % 91 % 1024,1 hPa 0,0 l/m 0,0 km/h (0 Bft) O-NO 67 -0,5 C 0,8 C 0,0 km/h (0 Bft)
25.11.2020 16:24 23,9 C 0,9 C 4,8 C 37 % 91 % 1024,1 hPa 0,0 l/m 0,0 km/h (0 Bft) N-NW 337 -0,4 C 0,9 C 0,0 km/h (0 Bft)
25.11.2020 16:22 24,1 C 0,9 C 4,9 C 38 % 91 % 1024,1 hPa 0,0 l/m 0,0 km/h (0 Bft) O-SO 112 -0,4 C 0,9 C 0,0 km/h (0 Bft)
25.11.2020 16:20 24,3 C 0,9 C 4,9 C 39 % 91 % 1024,1 hPa 0,0 l/m 0,0 km/h (0 Bft) N 360 -0,4 C 0,9 C 0,0 km/h (0 Bft)
25.11.2020 16:18 24,4 C 0,9 C 5,0 C 38 % 91 % 1024,1 hPa 0,0 l/m 0,0 km/h (0 Bft) O-NO 67 -0,4 C 0,9 C 0,0 km/h (0 Bft)
25.11.2020 16:16 24,6 C 0,9 C 5,0 C 38 % 91 % 1024,1 hPa 0,0 l/m 0,0 km/h (0 Bft) S-SO 157 -0,4 C 0,9 C 0,0 km/h (0 Bft)
25.11.2020 16:14 24,8 C 0,9 C 5,0 C 38 % 91 % 1024,1 hPa 0,0 l/m 0,0 km/h (0 Bft) O-NO 67 -0,4 C 0,9 C 0,0 km/h (0 Bft)
25.11.2020 16:12 25,0 C 0,9 C 5,0 C 38 % 91 % 1024,1 hPa 0,0 l/m 0,0 km/h (0 Bft) N-NO 22 -0,4 C 0,9 C 0,0 km/h (0 Bft)
25.11.2020 16:10 25,2 C 0,9 C 5,1 C 37 % 91 % 1024,4 hPa 0,0 l/m 0,0 km/h (0 Bft) N-NW 337 -0,4 C 0,9 C 0,0 km/h (0 Bft)
25.11.2020 16:08 25,4 C 1,1 C 5,2 C 37 % 91 % 1024,4 hPa 0,0 l/m 0,0 km/h (0 Bft) N-NW 337 -0,2 C 1,1 C 0,0 km/h (0 Bft)
25.11.2020 16:06 25,6 C 1,1 C 5,3 C 37 % 91 % 1024,4 hPa 0,0 l/m 0,0 km/h (0 Bft) N 360 -0,2 C 1,1 C 0,0 km/h (0 Bft)
25.11.2020 16:04 25,8 C 1,1 C 5,4 C 38 % 91 % 1024,4 hPa 0,0 l/m 0,0 km/h (0 Bft) O-NO 67 -0,2 C 1,1 C 0,0 km/h (0 Bft)
25.11.2020 16:02 25,9 C 1,1 C 5,4 C 40 % 91 % 1024,4 hPa 0,0 l/m 0,0 km/h (0 Bft) SO 135 -0,2 C 1,1 C 0,0 km/h (0 Bft)
25.11.2020 16:00 26,0 C 1,1 C 5,4 C 41 % 91 % 1024,4 hPa 0,0 l/m 0,0 km/h (0 Bft) SO 135 -0,2 C 1,1 C 0,0 km/h (0 Bft)
25.11.2020 15:58 26,0 C 1,1 C 5,5 C 41 % 91 % 1024,4 hPa 0,0 l/m 0,0 km/h (0 Bft) N-NW 337 -0,2 C 1,1 C 0,0 km/h (0 Bft)
25.11.2020 15:56 26,1 C 1,1 C 5,5 C 41 % 91 % 1024,4 hPa 0,0 l/m 0,0 km/h (0 Bft) S 180 -0,2 C 1,1 C 0,0 km/h (0 Bft)
25.11.2020 15:54 26,1 C 1,1 C 5,5 C 41 % 91 % 1024,4 hPa 0,0 l/m 0,0 km/h (0 Bft) O 90 -0,2 C 1,1 C 0,0 km/h (0 Bft)
25.11.2020 15:52 26,1 C 1,1 C 5,7 C 41 % 91 % 1024,4 hPa 0,0 l/m 0,0 km/h (0 Bft) S-SO 157 -0,2 C 1,1 C 0,0 km/h (0 Bft)
25.11.2020 15:50 26,2 C 1,2 C 5,7 C 41 % 91 % 1024,9 hPa 0,0 l/m 0,0 km/h (0 Bft) S-SO 157 -0,1 C 1,2 C 0,0 km/h (0 Bft)
25.11.2020 15:48 26,2 C 1,1 C 5,7 C 41 % 91 % 1024,9 hPa 0,0 l/m 0,0 km/h (0 Bft) S 180 -0,2 C 1,1 C 0,0 km/h (0 Bft)
25.11.2020 15:46 26,2 C 1,1 C 5,7 C 41 % 91 % 1024,9 hPa 0,0 l/m 0,0 km/h (0 Bft) O-SO 112 -0,2 C 1,1 C 0,0 km/h (0 Bft)
25.11.2020 15:44 26,3 C 1,1 C 5,7 C 41 % 91 % 1024,9 hPa 0,0 l/m 0,0 km/h (0 Bft) O-SO 112 -0,2 C 1,1 C 0,0 km/h (0 Bft)
25.11.2020 15:42 26,2 C 1,1 C 5,7 C 40 % 91 % 1024,9 hPa 0,0 l/m 0,0 km/h (0 Bft) S-SO 157 -0,2 C 1,1 C 0,0 km/h (0 Bft)
25.11.2020 15:40 26,4 C 1,1 C 5,7 C 40 % 91 % 1024,9 hPa 0,0 l/m 0,0 km/h (0 Bft) S-SO 157 -0,2 C 1,1 C 0,0 km/h (0 Bft)
25.11.2020 15:38 26,4 C 0,9 C 5,7 C 40 % 91 % 1024,9 hPa 0,0 l/m 0,0 km/h (0 Bft) S 180 -0,4 C 0,9 C 0,0 km/h (0 Bft)
25.11.2020 15:36 26,4 C 1,1 C 5,7 C 40 % 91 % 1024,9 hPa 0,0 l/m 0,0 km/h (0 Bft) S 180 -0,2 C 1,1 C 0,0 km/h (0 Bft)
25.11.2020 15:34 26,5 C 1,1 C 5,7 C 40 % 91 % 1024,9 hPa 0,0 l/m 0,0 km/h (0 Bft) S-SO 157 -0,2 C 1,1 C 0,0 km/h (0 Bft)
25.11.2020 15:32 26,5 C 1,1 C 5,7 C 40 % 91 % 1024,9 hPa 0,0 l/m 0,0 km/h (0 Bft) SW 225 -0,2 C 1,1 C 0,0 km/h (0 Bft)
25.11.2020 15:30 26,5 C 1,1 C 5,7 C 40 % 91 % 1024,7 hPa 0,0 l/m 0,0 km/h (0 Bft) S-SO 157 -0,2 C 1,1 C 0,0 km/h (0 Bft)
25.11.2020 15:28 26,6 C 1,1 C 5,7 C 40 % 91 % 1024,7 hPa 0,0 l/m 0,0 km/h (0 Bft) S-SO 157 -0,2 C 1,1 C 0,0 km/h (0 Bft)
25.11.2020 15:26 26,6 C 1,1 C 5,7 C 40 % 91 % 1024,7 hPa 0,0 l/m 0,0 km/h (0 Bft) S 180 -0,2 C 1,1 C 0,0 km/h (0 Bft)
25.11.2020 15:24 26,6 C 1,1 C 5,7 C 40 % 91 % 1024,7 hPa 0,0 l/m 0,0 km/h (0 Bft) S-SO 157 -0,2 C 1,1 C 0,0 km/h (0 Bft)
25.11.2020 15:22 26,6 C 1,1 C 5,7 C 40 % 91 % 1024,7 hPa 0,0 l/m 0,0 km/h (0 Bft) S-SO 157 -0,2 C 1,1 C 0,0 km/h (0 Bft)
25.11.2020 15:20 26,6 C 1,1 C 5,7 C 40 % 91 % 1024,7 hPa 0,0 l/m 0,0 km/h (0 Bft) S-SO 157 -0,2 C 1,1 C 0,0 km/h (0 Bft)
25.11.2020 15:18 26,7 C 1,2 C 5,8 C 41 % 91 % 1024,7 hPa 0,0 l/m 0,0 km/h (0 Bft) S-SO 157 -0,1 C 1,2 C 0,0 km/h (0 Bft)
25.11.2020 15:16 26,7 C 1,2 C 5,8 C 41 % 91 % 1024,7 hPa 0,0 l/m 0,0 km/h (0 Bft) S 180 -0,1 C 1,2 C 0,0 km/h (0 Bft)
25.11.2020 15:14 26,7 C 1,2 C 5,8 C 41 % 92 % 1024,7 hPa 0,0 l/m 0,0 km/h (0 Bft) SO 135 0,0 C 1,2 C 0,0 km/h (0 Bft)
25.11.2020 15:12 26,7 C 1,2 C 5,8 C 41 % 92 % 1024,7 hPa 0,0 l/m 0,0 km/h (0 Bft) SO 135 0,0 C 1,2 C 0,0 km/h (0 Bft)
25.11.2020 15:10 26,7 C 1,2 C 5,8 C 41 % 92 % 1024,4 hPa 0,0 l/m 0,0 km/h (0 Bft) N 360 0,0 C 1,2 C 0,0 km/h (0 Bft)
25.11.2020 15:08 26,7 C 1,2 C 5,8 C 41 % 92 % 1024,4 hPa 0,0 l/m 0,0 km/h (0 Bft) O-SO 112 0,0 C 1,2 C 0,0 km/h (0 Bft)
25.11.2020 15:06 26,6 C 1,2 C 5,8 C 41 % 92 % 1024,4 hPa 0,0 l/m 0,0 km/h (0 Bft) S-SO 157 0,0 C 1,2 C 0,0 km/h (0 Bft)
25.11.2020 15:04 26,6 C 1,2 C 5,8 C 41 % 92 % 1024,4 hPa 0,0 l/m 0,0 km/h (0 Bft) S-SO 157 0,0 C 1,2 C 0,0 km/h (0 Bft)
25.11.2020 15:02 26,6 C 1,2 C 5,8 C 41 % 92 % 1024,4 hPa 0,0 l/m 0,0 km/h (0 Bft) S-SO 157 0,0 C 1,2 C 0,0 km/h (0 Bft)
25.11.2020 15:00 26,6 C 1,2 C 5,9 C 41 % 92 % 1024,4 hPa 0,0 l/m 0,0 km/h (0 Bft) S-SO 157 0,0 C 1,2 C 0,0 km/h (0 Bft)
25.11.2020 14:58 26,6 C 1,2 C 5,9 C 41 % 92 % 1024,4 hPa 0,0 l/m 0,0 km/h (0 Bft) S 180 0,0 C 1,2 C 0,0 km/h (0 Bft)
25.11.2020 14:56 26,6 C 1,2 C 5,9 C 41 % 92 % 1024,4 hPa 0,0 l/m 0,0 km/h (0 Bft) S-SO 157 0,0 C 1,2 C 0,0 km/h (0 Bft)
25.11.2020 14:54 26,5 C 1,3 C 5,9 C 41 % 92 % 1024,4 hPa 0,0 l/m 0,0 km/h (0 Bft) S 180 0,1 C 1,3 C 0,0 km/h (0 Bft)
25.11.2020 14:52 26,5 C 1,3 C 5,9 C 41 % 92 % 1024,4 hPa 0,0 l/m 0,0 km/h (0 Bft) S-SO 157 0,1 C 1,3 C 0,0 km/h (0 Bft)
25.11.2020 14:50 26,4 C 1,3 C 5,9 C 42 % 92 % 1024,0 hPa 0,0 l/m 0,0 km/h (0 Bft) SO 135 0,1 C 1,3 C 0,0 km/h (0 Bft)
25.11.2020 14:48 26,4 C 1,3 C 5,9 C 42 % 92 % 1024,0 hPa 0,0 l/m 0,0 km/h (0 Bft) S 180 0,1 C 1,3 C 0,0 km/h (0 Bft)
25.11.2020 14:46 26,4 C 1,3 C 5,9 C 42 % 92 % 1024,0 hPa 0,0 l/m 0,0 km/h (0 Bft) S-SO 157 0,1 C 1,3 C 0,0 km/h (0 Bft)
25.11.2020 14:44 26,3 C 1,3 C 5,8 C 42 % 92 % 1024,0 hPa 0,0 l/m 0,0 km/h (0 Bft) S-SO 157 0,1 C 1,3 C 0,0 km/h (0 Bft)
25.11.2020 14:42 26,2 C 1,3 C 5,9 C 42 % 92 % 1024,0 hPa 0,0 l/m 0,0 km/h (0 Bft) O-SO 112 0,1 C 1,3 C 0,0 km/h (0 Bft)
25.11.2020 14:40 26,1 C 1,3 C 5,8 C 42 % 92 % 1024,0 hPa 0,0 l/m 0,0 km/h (0 Bft) SO 135 0,1 C 1,3 C 0,0 km/h (0 Bft)
25.11.2020 14:38 26,0 C 1,3 C 5,8 C 42 % 92 % 1024,0 hPa 0,0 l/m 0,0 km/h (0 Bft) S 180 0,1 C 1,3 C 0,0 km/h (0 Bft)
25.11.2020 14:36 26,0 C 1,3 C 5,9 C 42 % 92 % 1024,0 hPa 0,0 l/m 0,0 km/h (0 Bft) SO 135 0,1 C 1,3 C 0,0 km/h (0 Bft)
25.11.2020 14:34 25,9 C 1,3 C 5,9 C 42 % 92 % 1024,0 hPa 0,0 l/m 0,0 km/h (0 Bft) O-SO 112 0,1 C 1,3 C 0,0 km/h (0 Bft)
25.11.2020 14:32 25,8 C 1,3 C 5,9 C 42 % 92 % 1024,0 hPa 0,0 l/m 0,0 km/h (0 Bft) S 180 0,1 C 1,3 C 0,0 km/h (0 Bft)
25.11.2020 14:30 25,6 C 1,3 C 6,0 C 43 % 92 % 1023,1 hPa 0,0 l/m 0,0 km/h (0 Bft) S-SO 157 0,1 C 1,3 C 0,0 km/h (0 Bft)
25.11.2020 14:28 25,6 C 1,3 C 5,9 C 43 % 92 % 1023,1 hPa 0,0 l/m 0,0 km/h (0 Bft) S-SO 157 0,1 C 1,3 C 0,0 km/h (0 Bft)
25.11.2020 14:26 25,4 C 1,3 C 5,9 C 43 % 92 % 1023,1 hPa 0,0 l/m 0,0 km/h (0 Bft) S-SO 157 0,1 C 1,3 C 0,0 km/h (0 Bft)
25.11.2020 14:24 25,2 C 1,4 C 5,9 C 43 % 92 % 1023,1 hPa 0,0 l/m 0,0 km/h (0 Bft) S-SO 157 0,2 C 1,4 C 0,0 km/h (0 Bft)
25.11.2020 14:22 25,1 C 1,4 C 5,9 C 43 % 92 % 1023,1 hPa 0,0 l/m 0,0 km/h (0 Bft) SO 135 0,2 C 1,4 C 0,0 km/h (0 Bft)
25.11.2020 14:20 24,9 C 1,4 C 6,0 C 43 % 92 % 1023,1 hPa 0,0 l/m 0,0 km/h (0 Bft) S-SO 157 0,2 C 1,4 C 0,0 km/h (0 Bft)
25.11.2020 14:18 24,8 C 1,3 C 6,0 C 43 % 92 % 1023,1 hPa 0,0 l/m 0,0 km/h (0 Bft) S-SO 157 0,1 C 1,3 C 0,0 km/h (0 Bft)
25.11.2020 14:16 24,6 C 1,3 C 6,0 C 44 % 92 % 1023,1 hPa 0,0 l/m 0,0 km/h (0 Bft) S-SO 157 0,1 C 1,3 C 0,0 km/h (0 Bft)
25.11.2020 14:14 24,5 C 1,3 C 6,0 C 44 % 92 % 1023,1 hPa 0,0 l/m 0,0 km/h (0 Bft) S-SO 157 0,1 C 1,3 C 0,0 km/h (0 Bft)
25.11.2020 14:12 24,2 C 1,3 C 6,0 C 44 % 92 % 1023,1 hPa 0,0 l/m 0,0 km/h (0 Bft) S 180 0,1 C 1,3 C 0,0 km/h (0 Bft)
25.11.2020 14:10 24,2 C 1,3 C 6,0 C 44 % 92 % 1021,9 hPa 0,0 l/m 0,0 km/h (0 Bft) S 180 0,1 C 1,3 C 0,0 km/h (0 Bft)
25.11.2020 14:08 24,0 C 1,3 C 5,9 C 44 % 92 % 1021,9 hPa 0,0 l/m 0,0 km/h (0 Bft) SO 135 0,1 C 1,3 C 0,0 km/h (0 Bft)
25.11.2020 14:06 23,8 C 1,3 C 5,9 C 44 % 92 % 1021,9 hPa 0,0 l/m 0,0 km/h (0 Bft) N-NO 22 0,1 C 1,3 C 0,0 km/h (0 Bft)
25.11.2020 14:04 23,6 C 1,3 C 6,0 C 44 % 92 % 1021,9 hPa 0,0 l/m 0,0 km/h (0 Bft) S-SO 157 0,1 C 1,3 C 0,0 km/h (0 Bft)
25.11.2020 14:02 23,5 C 1,3 C 6,0 C 44 % 92 % 1021,9 hPa 0,0 l/m 0,0 km/h (0 Bft) S 180 0,1 C 1,3 C 0,0 km/h (0 Bft)
25.11.2020 14:00 23,4 C 1,3 C 6,0 C 45 % 92 % 1021,9 hPa 0,0 l/m 0,0 km/h (0 Bft) S-SO 157 0,1 C 1,3 C 0,0 km/h (0 Bft)
25.11.2020 13:58 23,2 C 1,3 C 6,0 C 45 % 92 % 1021,9 hPa 0,0 l/m 0,0 km/h (0 Bft) S 180 0,1 C 1,3 C 0,0 km/h (0 Bft)
25.11.2020 13:56 23,0 C 1,4 C 6,2 C 45 % 92 % 1021,9 hPa 0,0 l/m 0,0 km/h (0 Bft) S-SO 157 0,2 C 1,4 C 0,0 km/h (0 Bft)
25.11.2020 13:54 22,8 C 1,4 C 6,2 C 45 % 92 % 1021,9 hPa 0,0 l/m 0,0 km/h (0 Bft) S-SO 157 0,2 C 1,4 C 0,0 km/h (0 Bft)
25.11.2020 13:52 22,6 C 1,5 C 6,2 C 45 % 92 % 1021,9 hPa 0,0 l/m 0,0 km/h (0 Bft) S-SO 157 0,3 C 1,5 C 0,0 km/h (0 Bft)
25.11.2020 13:50 22,4 C 1,5 C 6,2 C 45 % 93 % 1021,1 hPa 0,0 l/m 0,0 km/h (0 Bft) O-SO 112 0,5 C 1,5 C 0,0 km/h (0 Bft)
25.11.2020 13:48 22,3 C 1,5 C 6,2 C 45 % 92 % 1021,1 hPa 0,0 l/m 0,0 km/h (0 Bft) SO 135 0,3 C 1,5 C 0,0 km/h (0 Bft)
25.11.2020 13:46 22,1 C 1,5 C 6,2 C 46 % 92 % 1021,1 hPa 0,0 l/m 0,0 km/h (0 Bft) SO 135 0,3 C 1,5 C 0,0 km/h (0 Bft)
25.11.2020 13:44 21,9 C 1,4 C 6,2 C 46 % 92 % 1021,1 hPa 0,0 l/m 0,0 km/h (0 Bft) S-SO 157 0,2 C 1,4 C 0,0 km/h (0 Bft)
25.11.2020 13:42 21,7 C 1,5 C 6,2 C 46 % 93 % 1021,1 hPa 0,0 l/m 0,0 km/h (0 Bft) S 180 0,5 C 1,5 C 0,0 km/h (0 Bft)
25.11.2020 13:40 21,6 C 1,5 C 6,2 C 46 % 93 % 1021,1 hPa 0,0 l/m 0,0 km/h (0 Bft) S 180 0,5 C 1,5 C 0,0 km/h (0 Bft)
25.11.2020 13:38 21,4 C 1,5 C 6,2 C 46 % 93 % 1021,1 hPa 0,0 l/m 0,0 km/h (0 Bft) S-SO 157 0,5 C 1,5 C 0,0 km/h (0 Bft)
25.11.2020 13:36 21,2 C 1,5 C 6,0 C 45 % 93 % 1021,1 hPa 0,0 l/m 0,0 km/h (0 Bft) S-SO 157 0,5 C 1,5 C 0,0 km/h (0 Bft)
25.11.2020 13:34 21,1 C 1,5 C 6,0 C 45 % 93 % 1021,1 hPa 0,0 l/m 0,0 km/h (0 Bft) S-SO 157 0,5 C 1,5 C 0,0 km/h (0 Bft)
25.11.2020 13:32 21,0 C 1,5 C 6,0 C 45 % 93 % 1021,1 hPa 0,0 l/m 0,0 km/h (0 Bft) SO 135 0,5 C 1,5 C 0,0 km/h (0 Bft)
25.11.2020 13:30 20,8 C 1,6 C 5,9 C 45 % 93 % 1021,3 hPa 0,0 l/m 0,0 km/h (0 Bft) S-SO 157 0,6 C 1,6 C 0,0 km/h (0 Bft)
25.11.2020 13:28 20,8 C 1,5 C 5,9 C 45 % 93 % 1021,3 hPa 0,0 l/m 0,0 km/h (0 Bft) SO 135 0,5 C 1,5 C 0,0 km/h (0 Bft)
25.11.2020 13:26 20,7 C 1,5 C 5,9 C 45 % 93 % 1021,3 hPa 0,0 l/m 0,0 km/h (0 Bft) O-NO 67 0,5 C 1,5 C 0,0 km/h (0 Bft)
25.11.2020 13:24 20,7 C 1,6 C 5,9 C 44 % 93 % 1021,3 hPa 0,0 l/m 0,0 km/h (0 Bft) SO 135 0,6 C 1,6 C 0,0 km/h (0 Bft)
25.11.2020 13:22 20,8 C 1,6 C 5,9 C 43 % 93 % 1021,3 hPa 0,0 l/m 0,0 km/h (0 Bft) SO 135 0,6 C 1,6 C 0,0 km/h (0 Bft)
25.11.2020 13:20 20,8 C 1,5 C 6,0 C 44 % 93 % 1021,3 hPa 0,0 l/m 0,0 km/h (0 Bft) S-SW 202 0,5 C 1,5 C 0,0 km/h (0 Bft)
25.11.2020 13:18 20,9 C 1,5 C 6,0 C 45 % 93 % 1021,3 hPa 0,0 l/m 0,0 km/h (0 Bft) S 180 0,5 C 1,5 C 0,0 km/h (0 Bft)
25.11.2020 13:16 21,0 C 1,5 C 6,0 C 44 % 93 % 1021,3 hPa 0,0 l/m 0,0 km/h (0 Bft) SO 135 0,5 C 1,5 C 0,0 km/h (0 Bft)
25.11.2020 13:14 21,0 C 1,5 C 6,0 C 44 % 93 % 1021,3 hPa 0,0 l/m 0,0 km/h (0 Bft) S-SO 157 0,5 C 1,5 C 0,0 km/h (0 Bft)
25.11.2020 13:12 21,2 C 1,5 C 6,0 C 44 % 93 % 1021,3 hPa 0,0 l/m 0,0 km/h (0 Bft) O-SO 112 0,5 C 1,5 C 0,0 km/h (0 Bft)
25.11.2020 13:10 21,2 C 1,6 C 6,0 C 44 % 93 % 1021,9 hPa 0,0 l/m 0,0 km/h (0 Bft) S-SO 157 0,6 C 1,6 C 0,0 km/h (0 Bft)
25.11.2020 13:08 21,2 C 1,6 C 6,0 C 44 % 93 % 1021,9 hPa 0,0 l/m 0,0 km/h (0 Bft) O-SO 112 0,6 C 1,6 C 0,0 km/h (0 Bft)
25.11.2020 13:06 21,4 C 1,6 C 6,0 C 44 % 93 % 1021,9 hPa 0,0 l/m 0,0 km/h (0 Bft) S-SO 157 0,6 C 1,6 C 0,0 km/h (0 Bft)
25.11.2020 13:04 21,4 C 1,5 C 5,9 C 44 % 93 % 1021,9 hPa 0,0 l/m 0,0 km/h (0 Bft) SO 135 0,5 C 1,5 C 0,0 km/h (0 Bft)
25.11.2020 13:02 21,5 C 1,5 C 5,9 C 44 % 93 % 1021,9 hPa 0,0 l/m 0,0 km/h (0 Bft) O 90 0,5 C 1,5 C 0,0 km/h (0 Bft)
25.11.2020 13:00 21,6 C 1,5 C 5,9 C 44 % 93 % 1021,9 hPa 0,0 l/m 0,0 km/h (0 Bft) S-SO 157 0,5 C 1,5 C 0,0 km/h (0 Bft)
25.11.2020 12:58 21,7 C 1,5 C 5,8 C 44 % 93 % 1021,9 hPa 0,0 l/m 0,0 km/h (0 Bft) S-SO 157 0,5 C 1,5 C 0,0 km/h (0 Bft)
25.11.2020 12:56 21,8 C 1,5 C 5,8 C 44 % 93 % 1021,9 hPa 0,0 l/m 0,0 km/h (0 Bft) SO 135 0,5 C 1,5 C 0,0 km/h (0 Bft)
25.11.2020 12:54 21,9 C 1,4 C 5,7 C 44 % 93 % 1021,9 hPa 0,0 l/m 0,0 km/h (0 Bft) S 180 0,4 C 1,4 C 0,0 km/h (0 Bft)
25.11.2020 12:52 22,0 C 1,4 C 5,7 C 45 % 93 % 1021,9 hPa 0,0 l/m 0,0 km/h (0 Bft) O-SO 112 0,4 C 1,4 C 0,0 km/h (0 Bft)
25.11.2020 12:50 22,1 C 1,4 C 5,6 C 46 % 93 % 1021,4 hPa 0,0 l/m 0,0 km/h (0 Bft) O-NO 67 0,4 C 1,4 C 0,0 km/h (0 Bft)
25.11.2020 12:48 22,1 C 1,3 C 5,6 C 47 % 93 % 1021,4 hPa 0,0 l/m 0,0 km/h (0 Bft) NO 45 0,3 C 1,3 C 0,0 km/h (0 Bft)
25.11.2020 12:46 22,0 C 1,4 C 5,6 C 48 % 93 % 1021,4 hPa 0,0 l/m 0,0 km/h (0 Bft) SO 135 0,4 C 1,4 C 0,0 km/h (0 Bft)
25.11.2020 12:44 22,0 C 1,4 C 5,7 C 48 % 93 % 1021,4 hPa 0,0 l/m 0,0 km/h (0 Bft) SO 135 0,4 C 1,4 C 0,0 km/h (0 Bft)
25.11.2020 12:42 21,9 C 1,5 C 5,8 C 48 % 93 % 1021,4 hPa 0,0 l/m 0,0 km/h (0 Bft) O-NO 67 0,5 C 1,5 C 0,0 km/h (0 Bft)
25.11.2020 12:40 21,9 C 1,5 C 5,8 C 48 % 93 % 1021,4 hPa 0,0 l/m 0,0 km/h (0 Bft) O 90 0,5 C 1,5 C 0,0 km/h (0 Bft)
25.11.2020 12:38 21,8 C 1,5 C 5,8 C 48 % 93 % 1021,4 hPa 0,0 l/m 0,0 km/h (0 Bft) N-NW 337 0,5 C 1,5 C 0,0 km/h (0 Bft)
25.11.2020 12:36 21,7 C 1,5 C 5,8 C 48 % 93 % 1021,4 hPa 0,0 l/m 0,0 km/h (0 Bft) SO 135 0,5 C 1,5 C 0,0 km/h (0 Bft)
25.11.2020 12:34 21,6 C 1,5 C 5,9 C 48 % 93 % 1021,4 hPa 0,0 l/m 0,0 km/h (0 Bft) W 270 0,5 C 1,5 C 0,0 km/h (0 Bft)
25.11.2020 12:32 21,5 C 1,4 C 5,9 C 48 % 93 % 1021,4 hPa 0,0 l/m 0,0 km/h (0 Bft) N 360 0,4 C 1,4 C 0,0 km/h (0 Bft)
25.11.2020 12:30 21,4 C 1,4 C 5,9 C 48 % 93 % 1020,6 hPa 0,0 l/m 0,0 km/h (0 Bft) NW 315 0,4 C 1,4 C 0,0 km/h (0 Bft)
25.11.2020 12:28 21,2 C 1,4 C 6,0 C 49 % 93 % 1020,6 hPa 0,0 l/m 0,0 km/h (0 Bft) N-NO 22 0,4 C 1,4 C 0,0 km/h (0 Bft)
25.11.2020 12:26 21,2 C 1,3 C 6,1 C 49 % 93 % 1020,6 hPa 0,0 l/m 0,0 km/h (0 Bft) S-SO 157 0,3 C 1,3 C 0,0 km/h (0 Bft)
25.11.2020 12:24 21,1 C 1,3 C 6,2 C 49 % 93 % 1020,6 hPa 0,0 l/m 0,0 km/h (0 Bft) O-NO 67 0,3 C 1,3 C 0,0 km/h (0 Bft)
25.11.2020 12:22 20,9 C 1,3 C 6,2 C 49 % 93 % 1020,6 hPa 0,0 l/m 0,0 km/h (0 Bft) O-SO 112 0,3 C 1,3 C 0,0 km/h (0 Bft)
25.11.2020 12:20 20,8 C 1,4 C 6,2 C 49 % 93 % 1020,6 hPa 0,0 l/m 0,0 km/h (0 Bft) S-SO 157 0,4 C 1,4 C 0,0 km/h (0 Bft)
25.11.2020 12:18 20,7 C 1,3 C 6,2 C 49 % 93 % 1020,6 hPa 0,0 l/m 0,0 km/h (0 Bft) S-SO 157 0,3 C 1,3 C 0,0 km/h (0 Bft)
25.11.2020 12:16 20,6 C 1,3 C 6,2 C 50 % 93 % 1020,6 hPa 0,0 l/m 0,0 km/h (0 Bft) S 180 0,3 C 1,3 C 0,0 km/h (0 Bft)
25.11.2020 12:14 20,4 C 1,3 C 6,1 C 49 % 93 % 1020,6 hPa 0,0 l/m 0,0 km/h (0 Bft) S-SO 157 0,3 C 1,3 C 0,0 km/h (0 Bft)
25.11.2020 12:12 20,4 C 1,3 C 6,1 C 49 % 93 % 1020,6 hPa 0,0 l/m 0,0 km/h (0 Bft) S-SO 157 0,3 C 1,3 C 0,0 km/h (0 Bft)
25.11.2020 12:10 20,2 C 1,3 C 5,9 C 49 % 93 % 1019,1 hPa 0,0 l/m 0,2 km/h (0 Bft) NO 45 0,3 C 1,3 C 0,0 km/h (0 Bft)
25.11.2020 12:08 20,0 C 1,3 C 5,9 C 50 % 93 % 1019,1 hPa 0,0 l/m 0,2 km/h (0 Bft) NO 45 0,3 C 1,3 C 0,0 km/h (0 Bft)
25.11.2020 12:06 19,8 C 1,3 C 5,9 C 50 % 93 % 1019,1 hPa 0,0 l/m 0,2 km/h (0 Bft) NO 45 0,3 C 1,3 C 0,0 km/h (0 Bft)
25.11.2020 12:04 19,6 C 1,3 C 5,9 C 50 % 93 % 1019,1 hPa 0,0 l/m 0,2 km/h (0 Bft) NO 45 0,3 C 1,3 C 11,3 km/h (2 Bft)
25.11.2020 12:02 19,4 C 1,3 C 5,9 C 50 % 93 % 1019,1 hPa 0,0 l/m 0,2 km/h (0 Bft) NO 45 0,3 C 1,3 C 0,0 km/h (0 Bft)
25.11.2020 12:00 19,2 C 1,3 C 5,9 C 51 % 93 % 1019,1 hPa 0,0 l/m 0,2 km/h (0 Bft) NO 45 0,3 C 1,3 C 0,0 km/h (0 Bft)
25.11.2020 11:58 19,1 C 1,2 C 6,0 C 51 % 93 % 1019,1 hPa 0,0 l/m 0,2 km/h (0 Bft) NO 45 0,2 C 1,2 C 0,0 km/h (0 Bft)
25.11.2020 11:56 18,9 C 1,2 C 6,1 C 51 % 93 % 1019,1 hPa 0,0 l/m 0,0 km/h (0 Bft) N-NO 22 0,2 C 1,2 C 0,0 km/h (0 Bft)
25.11.2020 11:54 18,7 C 1,2 C 6,1 C 51 % 93 % 1019,1 hPa 0,0 l/m 0,0 km/h (0 Bft) S 180 0,2 C 1,2 C 0,0 km/h (0 Bft)
25.11.2020 11:52 18,4 C 1,2 C 6,1 C 52 % 93 % 1019,1 hPa 0,0 l/m 0,0 km/h (0 Bft) O 90 0,2 C 1,2 C 0,0 km/h (0 Bft)
25.11.2020 11:50 18,1 C 1,2 C 6,1 C 52 % 93 % 1018,2 hPa 0,0 l/m 0,0 km/h (0 Bft) SO 135 0,2 C 1,2 C 0,0 km/h (0 Bft)
25.11.2020 11:48 17,8 C 1,2 C 6,0 C 52 % 93 % 1018,2 hPa 0,0 l/m 0,0 km/h (0 Bft) SO 135 0,2 C 1,2 C 0,0 km/h (0 Bft)
25.11.2020 11:46 17,4 C 1,2 C 6,0 C 52 % 93 % 1018,2 hPa 0,0 l/m 0,0 km/h (0 Bft) S-SO 157 0,2 C 1,2 C 0,0 km/h (0 Bft)
25.11.2020 11:44 17,2 C 1,2 C 6,0 C 52 % 93 % 1018,2 hPa 0,0 l/m 0,0 km/h (0 Bft) SO 135 0,2 C 1,2 C 0,0 km/h (0 Bft)
25.11.2020 11:42 17,0 C 1,2 C 6,0 C 53 % 93 % 1018,2 hPa 0,0 l/m 0,0 km/h (0 Bft) S-SO 157 0,2 C 1,2 C 0,0 km/h (0 Bft)
25.11.2020 11:40 16,8 C 1,3 C 6,0 C 52 % 93 % 1018,2 hPa 0,0 l/m 0,0 km/h (0 Bft) O-SO 112 0,3 C 1,3 C 0,0 km/h (0 Bft)
25.11.2020 11:38 16,7 C 1,3 C 6,0 C 52 % 94 % 1018,2 hPa 0,0 l/m 0,0 km/h (0 Bft) SO 135 0,4 C 1,3 C 0,0 km/h (0 Bft)
25.11.2020 11:36 16,7 C 1,3 C 6,0 C 52 % 94 % 1018,2 hPa 0,0 l/m 0,0 km/h (0 Bft) SO 135 0,4 C 1,3 C 0,0 km/h (0 Bft)
25.11.2020 11:34 16,6 C 1,3 C 6,0 C 52 % 94 % 1018,2 hPa 0,0 l/m 0,0 km/h (0 Bft) SO 135 0,4 C 1,3 C 0,0 km/h (0 Bft)
25.11.2020 11:32 16,6 C 1,3 C 5,9 C 53 % 94 % 1018,2 hPa 0,0 l/m 0,0 km/h (0 Bft) NO 45 0,4 C 1,3 C 0,0 km/h (0 Bft)
25.11.2020 11:30 16,5 C 1,3 C 5,9 C 53 % 94 % 1017,5 hPa 0,0 l/m 0,0 km/h (0 Bft) SO 135 0,4 C 1,3 C 0,0 km/h (0 Bft)
25.11.2020 11:28 16,4 C 1,3 C 5,9 C 54 % 94 % 1017,5 hPa 0,0 l/m 0,0 km/h (0 Bft) S-SO 157 0,4 C 1,3 C 0,0 km/h (0 Bft)
25.11.2020 11:26 16,4 C 1,2 C 5,8 C 55 % 94 % 1017,5 hPa 0,0 l/m 0,0 km/h (0 Bft) SO 135 0,3 C 1,2 C 0,0 km/h (0 Bft)
25.11.2020 11:24 16,2 C 1,2 C 5,9 C 55 % 94 % 1017,5 hPa 0,0 l/m 0,0 km/h (0 Bft) SW 225 0,3 C 1,2 C 0,0 km/h (0 Bft)
25.11.2020 11:22 15,9 C 1,2 C 5,9 C 56 % 94 % 1017,5 hPa 0,0 l/m 0,0 km/h (0 Bft) NO 45 0,3 C 1,2 C 0,0 km/h (0 Bft)
25.11.2020 11:20 15,8 C 1,2 C 5,9 C 56 % 94 % 1017,5 hPa 0,0 l/m 0,0 km/h (0 Bft) S-SO 157 0,3 C 1,2 C 0,0 km/h (0 Bft)
25.11.2020 11:18 15,6 C 1,2 C 5,9 C 56 % 94 % 1017,5 hPa 0,0 l/m 0,0 km/h (0 Bft) S 180 0,3 C 1,2 C 0,0 km/h (0 Bft)
25.11.2020 11:16 15,6 C 1,2 C 5,9 C 56 % 94 % 1017,5 hPa 0,0 l/m 0,0 km/h (0 Bft) S-SO 157 0,3 C 1,2 C 0,0 km/h (0 Bft)
25.11.2020 11:14 15,5 C 1,2 C 5,8 C 56 % 94 % 1017,5 hPa 0,0 l/m 0,0 km/h (0 Bft) SO 135 0,3 C 1,2 C 0,0 km/h (0 Bft)
25.11.2020 11:12 15,4 C 1,2 C 5,8 C 56 % 94 % 1017,5 hPa 0,0 l/m 0,0 km/h (0 Bft) S-SO 157 0,3 C 1,2 C 0,0 km/h (0 Bft)
25.11.2020 11:10 15,3 C 1,2 C 5,7 C 56 % 94 % 1017,4 hPa 0,0 l/m 0,0 km/h (0 Bft) SO 135 0,3 C 1,2 C 0,0 km/h (0 Bft)
25.11.2020 11:08 15,2 C 1,2 C 5,7 C 56 % 94 % 1017,4 hPa 0,0 l/m 0,0 km/h (0 Bft) SO 135 0,3 C 1,2 C 0,0 km/h (0 Bft)
25.11.2020 11:06 15,2 C 1,2 C 5,7 C 56 % 94 % 1017,4 hPa 0,0 l/m 0,0 km/h (0 Bft) S-SO 157 0,3 C 1,2 C 0,0 km/h (0 Bft)
25.11.2020 11:04 15,1 C 1,1 C 5,5 C 56 % 94 % 1017,4 hPa 0,0 l/m 0,0 km/h (0 Bft) NW 315 0,2 C 1,1 C 0,0 km/h (0 Bft)
25.11.2020 11:02 15,1 C 1,1 C 5,5 C 56 % 94 % 1017,4 hPa 0,0 l/m 0,0 km/h (0 Bft) W 270 0,2 C 1,1 C 0,0 km/h (0 Bft)
25.11.2020 11:00 15,0 C 1,1 C 5,7 C 56 % 94 % 1017,4 hPa 0,0 l/m 0,0 km/h (0 Bft) NW 315 0,2 C 1,1 C 0,0 km/h (0 Bft)
25.11.2020 10:58 15,0 C 1,1 C 5,7 C 56 % 94 % 1017,4 hPa 0,0 l/m 0,0 km/h (0 Bft) NO 45 0,2 C 1,1 C 0,0 km/h (0 Bft)
25.11.2020 10:56 14,8 C 1,1 C 5,7 C 56 % 94 % 1017,4 hPa 0,0 l/m 0,0 km/h (0 Bft) S 180 0,2 C 1,1 C 0,0 km/h (0 Bft)
25.11.2020 10:54 14,9 C 1,1 C 5,8 C 56 % 94 % 1017,4 hPa 0,0 l/m 0,0 km/h (0 Bft) W-NW 292 0,2 C 1,1 C 0,0 km/h (0 Bft)
25.11.2020 10:52 14,8 C 1,1 C 5,8 C 56 % 94 % 1017,4 hPa 0,0 l/m 0,0 km/h (0 Bft) O-SO 112 0,2 C 1,1 C 0,0 km/h (0 Bft)
25.11.2020 10:50 14,8 C 1,1 C 5,8 C 56 % 94 % 1017,2 hPa 0,0 l/m 0,0 km/h (0 Bft) S-SO 157 0,2 C 1,1 C 0,0 km/h (0 Bft)
25.11.2020 10:48 14,8 C 1,1 C 5,9 C 56 % 94 % 1017,2 hPa 0,0 l/m 0,0 km/h (0 Bft) O-NO 67 0,2 C 1,1 C 0,0 km/h (0 Bft)
25.11.2020 10:46 14,7 C 1,1 C 5,9 C 56 % 94 % 1017,2 hPa 0,0 l/m 0,0 km/h (0 Bft) SO 135 0,2 C 1,1 C 0,0 km/h (0 Bft)
25.11.2020 10:44 14,7 C 1,1 C 5,9 C 56 % 94 % 1017,2 hPa 0,0 l/m 0,0 km/h (0 Bft) S-SO 157 0,2 C 1,1 C 0,0 km/h (0 Bft)
25.11.2020 10:42 14,6 C 0,9 C 5,9 C 56 % 94 % 1017,2 hPa 0,0 l/m 0,0 km/h (0 Bft) SO 135 0,0 C 0,9 C 0,0 km/h (0 Bft)
25.11.2020 10:40 14,4 C 0,9 C 5,9 C 56 % 94 % 1017,2 hPa 0,0 l/m 0,0 km/h (0 Bft) S-SO 157 0,0 C 0,9 C 0,0 km/h (0 Bft)
25.11.2020 10:38 14,4 C 0,9 C 5,9 C 56 % 94 % 1017,2 hPa 0,0 l/m 0,0 km/h (0 Bft) SO 135 0,0 C 0,9 C 0,0 km/h (0 Bft)
25.11.2020 10:36 14,3 C 0,9 C 5,8 C 56 % 94 % 1017,2 hPa 0,0 l/m 0,0 km/h (0 Bft) S-SO 157 0,0 C 0,9 C 0,0 km/h (0 Bft)
25.11.2020 10:34 14,4 C 0,9 C 5,8 C 56 % 94 % 1017,2 hPa 0,0 l/m 0,0 km/h (0 Bft) SO 135 0,0 C 0,9 C 0,0 km/h (0 Bft)
25.11.2020 10:32 14,2 C 0,9 C 5,8 C 55 % 94 % 1017,2 hPa 0,0 l/m 0,0 km/h (0 Bft) S-SO 157 0,0 C 0,9 C 0,0 km/h (0 Bft)
25.11.2020 10:30 14,3 C 1,1 C 5,7 C 55 % 94 % 1017,1 hPa 0,0 l/m 0,0 km/h (0 Bft) O-NO 67 0,2 C 1,1 C 0,0 km/h (0 Bft)
25.11.2020 10:28 14,3 C 0,9 C 5,7 C 55 % 94 % 1017,1 hPa 0,0 l/m 0,0 km/h (0 Bft) SW 225 0,0 C 0,9 C 0,0 km/h (0 Bft)
25.11.2020 10:26 14,3 C 0,9 C 5,7 C 55 % 94 % 1017,1 hPa 0,0 l/m 0,0 km/h (0 Bft) SO 135 0,0 C 0,9 C 0,0 km/h (0 Bft)
25.11.2020 10:24 14,3 C 0,9 C 5,7 C 55 % 94 % 1017,1 hPa 0,0 l/m 0,0 km/h (0 Bft) S-SO 157 0,0 C 0,9 C 0,0 km/h (0 Bft)
25.11.2020 10:22 14,3 C 0,9 C 5,5 C 55 % 94 % 1017,1 hPa 0,0 l/m 0,0 km/h (0 Bft) S 180 0,0 C 0,9 C 0,0 km/h (0 Bft)
25.11.2020 10:20 14,3 C 0,9 C 5,5 C 55 % 94 % 1017,1 hPa 0,0 l/m 0,0 km/h (0 Bft) O-NO 67 0,0 C 0,9 C 0,0 km/h (0 Bft)
25.11.2020 10:18 14,2 C 0,9 C 5,5 C 55 % 94 % 1017,1 hPa 0,0 l/m 0,0 km/h (0 Bft) S-SO 157 0,0 C 0,9 C 0,0 km/h (0 Bft)
25.11.2020 10:16 14,4 C 1,1 C 5,5 C 55 % 94 % 1017,1 hPa 0,0 l/m 0,0 km/h (0 Bft) S 180 0,2 C 1,1 C 0,0 km/h (0 Bft)
25.11.2020 10:14 14,4 C 1,1 C 5,4 C 56 % 94 % 1017,1 hPa 0,0 l/m 0,0 km/h (0 Bft) O-SO 112 0,2 C 1,1 C 0,0 km/h (0 Bft)
25.11.2020 10:12 14,4 C 1,1 C 5,4 C 57 % 94 % 1017,1 hPa 0,0 l/m 0,0 km/h (0 Bft) N-NW 337 0,2 C 1,1 C 0,0 km/h (0 Bft)
25.11.2020 10:10 14,4 C 1,1 C 5,4 C 57 % 94 % 1016,9 hPa 0,0 l/m 0,0 km/h (0 Bft) SO 135 0,2 C 1,1 C 0,0 km/h (0 Bft)
25.11.2020 10:08 14,3 C 1,1 C 5,4 C 58 % 94 % 1016,9 hPa 0,0 l/m 0,0 km/h (0 Bft) O-SO 112 0,2 C 1,1 C 0,0 km/h (0 Bft)
25.11.2020 10:06 14,4 C 0,9 C 5,4 C 58 % 94 % 1016,9 hPa 0,0 l/m 0,0 km/h (0 Bft) S-SO 157 0,0 C 0,9 C 0,0 km/h (0 Bft)
25.11.2020 10:04 14,3 C 0,9 C 5,3 C 58 % 94 % 1016,9 hPa 0,0 l/m 0,0 km/h (0 Bft) W-SW 247 0,0 C 0,9 C 0,0 km/h (0 Bft)
25.11.2020 10:02 14,3 C 1,1 C 5,3 C 58 % 94 % 1016,9 hPa 0,0 l/m 0,0 km/h (0 Bft) SO 135 0,2 C 1,1 C 0,0 km/h (0 Bft)
25.11.2020 10:00 14,3 C 1,1 C 5,2 C 58 % 94 % 1016,9 hPa 0,0 l/m 0,0 km/h (0 Bft) S-SO 157 0,2 C 1,1 C 0,0 km/h (0 Bft)
25.11.2020 09:58 14,3 C 1,1 C 5,1 C 58 % 94 % 1016,9 hPa 0,0 l/m 0,0 km/h (0 Bft) SO 135 0,2 C 1,1 C 0,0 km/h (0 Bft)
25.11.2020 09:56 14,3 C 0,9 C 5,1 C 58 % 94 % 1016,9 hPa 0,0 l/m 0,0 km/h (0 Bft) N-NO 22 0,0 C 0,9 C 0,0 km/h (0 Bft)
25.11.2020 09:54 14,5 C 1,1 C 5,2 C 58 % 94 % 1016,9 hPa 0,0 l/m 0,0 km/h (0 Bft) O-NO 67 0,2 C 1,1 C 0,0 km/h (0 Bft)
25.11.2020 09:52 14,3 C 1,1 C 5,2 C 58 % 94 % 1016,9 hPa 0,0 l/m 0,0 km/h (0 Bft) SO 135 0,2 C 1,1 C 0,0 km/h (0 Bft)
25.11.2020 09:50 14,3 C 1,1 C 5,2 C 58 % 94 % 1017,1 hPa 0,0 l/m 0,0 km/h (0 Bft) O-NO 67 0,2 C 1,1 C 0,0 km/h (0 Bft)
25.11.2020 09:48 14,3 C 1,1 C 5,2 C 58 % 94 % 1017,1 hPa 0,0 l/m 0,0 km/h (0 Bft) SO 135 0,2 C 1,1 C 0,0 km/h (0 Bft)
25.11.2020 09:46 14,3 C 1,1 C 5,2 C 58 % 94 % 1017,1 hPa 0,0 l/m 0,0 km/h (0 Bft) N-NW 337 0,2 C 1,1 C 0,0 km/h (0 Bft)
25.11.2020 09:44 14,5 C 1,1 C 5,3 C 57 % 94 % 1017,1 hPa 0,0 l/m 0,0 km/h (0 Bft) SW 225 0,2 C 1,1 C 0,0 km/h (0 Bft)
25.11.2020 09:42 14,3 C 1,1 C 5,4 C 58 % 94 % 1017,1 hPa 0,0 l/m 0,0 km/h (0 Bft) SO 135 0,2 C 1,1 C 0,0 km/h (0 Bft)
25.11.2020 09:40 14,3 C 0,9 C 5,5 C 57 % 94 % 1017,1 hPa 0,0 l/m 0,0 km/h (0 Bft) N-NW 337 0,0 C 0,9 C 0,0 km/h (0 Bft)
25.11.2020 09:38 14,4 C 1,1 C 5,5 C 57 % 94 % 1017,1 hPa 0,0 l/m 0,0 km/h (0 Bft) NO 45 0,2 C 1,1 C 0,0 km/h (0 Bft)
25.11.2020 09:36 14,4 C 1,0 C 5,5 C 57 % 94 % 1017,1 hPa 0,0 l/m 0,0 km/h (0 Bft) S-SO 157 0,1 C 1,0 C 0,0 km/h (0 Bft)
25.11.2020 09:34 14,4 C 1,0 C 5,5 C 57 % 94 % 1017,1 hPa 0,0 l/m 0,0 km/h (0 Bft) SO 135 0,1 C 1,0 C 0,0 km/h (0 Bft)
25.11.2020 09:32 14,5 C 1,0 C 5,5 C 57 % 94 % 1017,1 hPa 0,0 l/m 0,0 km/h (0 Bft) S-SO 157 0,1 C 1,0 C 0,0 km/h (0 Bft)
25.11.2020 09:30 14,4 C 1,0 C 5,5 C 57 % 94 % 1017,1 hPa 0,0 l/m 0,0 km/h (0 Bft) S-SO 157 0,1 C 1,0 C 0,0 km/h (0 Bft)
25.11.2020 09:28 14,4 C 1,0 C 5,4 C 57 % 94 % 1017,1 hPa 0,0 l/m 0,0 km/h (0 Bft) S-SO 157 0,1 C 1,0 C 0,0 km/h (0 Bft)
25.11.2020 09:26 14,4 C 1,0 C 5,4 C 57 % 94 % 1017,1 hPa 0,0 l/m 0,0 km/h (0 Bft) S-SO 157 0,1 C 1,0 C 0,0 km/h (0 Bft)
25.11.2020 09:24 14,4 C 1,0 C 5,4 C 57 % 94 % 1017,1 hPa 0,0 l/m 0,0 km/h (0 Bft) S 180 0,1 C 1,0 C 0,0 km/h (0 Bft)
25.11.2020 09:22 14,4 C 1,0 C 5,4 C 57 % 94 % 1017,1 hPa 0,0 l/m 0,0 km/h (0 Bft) SO 135 0,1 C 1,0 C 0,0 km/h (0 Bft)
25.11.2020 09:20 14,6 C 1,0 C 5,4 C 57 % 94 % 1017,1 hPa 0,0 l/m 0,0 km/h (0 Bft) S-SO 157 0,1 C 1,0 C 0,0 km/h (0 Bft)
25.11.2020 09:18 14,4 C 1,0 C 5,4 C 57 % 94 % 1017,1 hPa 0,0 l/m 0,0 km/h (0 Bft) N-NO 22 0,1 C 1,0 C 0,0 km/h (0 Bft)
25.11.2020 09:16 14,6 C 1,0 C 5,4 C 57 % 94 % 1017,1 hPa 0,0 l/m 0,0 km/h (0 Bft) SO 135 0,1 C 1,0 C 0,0 km/h (0 Bft)
25.11.2020 09:14 14,6 C 0,8 C 5,4 C 57 % 94 % 1017,1 hPa 0,0 l/m 0,0 km/h (0 Bft) S-SO 157 -0,1 C 0,8 C 0,0 km/h (0 Bft)
25.11.2020 09:12 14,6 C 0,8 C 5,3 C 57 % 94 % 1017,1 hPa 0,0 l/m 0,0 km/h (0 Bft) S-SO 157 -0,1 C 0,8 C 0,0 km/h (0 Bft)
25.11.2020 09:10 14,6 C 0,8 C 5,3 C 57 % 94 % 1017,3 hPa 0,0 l/m 0,0 km/h (0 Bft) SO 135 -0,1 C 0,8 C 0,0 km/h (0 Bft)
25.11.2020 09:08 14,6 C 0,8 C 5,3 C 57 % 94 % 1017,3 hPa 0,0 l/m 0,0 km/h (0 Bft) S-SO 157 -0,1 C 0,8 C 0,0 km/h (0 Bft)
25.11.2020 09:06 14,6 C 0,8 C 5,3 C 57 % 94 % 1017,3 hPa 0,0 l/m 0,0 km/h (0 Bft) SO 135 -0,1 C 0,8 C 0,0 km/h (0 Bft)
25.11.2020 09:04 14,6 C 0,8 C 5,3 C 57 % 94 % 1017,3 hPa 0,0 l/m 0,0 km/h (0 Bft) S-SO 157 -0,1 C 0,8 C 0,0 km/h (0 Bft)
25.11.2020 09:02 14,6 C 0,8 C 5,4 C 57 % 94 % 1017,3 hPa 0,0 l/m 0,0 km/h (0 Bft) N-NW 337 -0,1 C 0,8 C 0,0 km/h (0 Bft)
25.11.2020 09:00 14,6 C 0,8 C 5,4 C 57 % 94 % 1017,3 hPa 0,0 l/m 0,0 km/h (0 Bft) S-SO 157 -0,1 C 0,8 C 0,0 km/h (0 Bft)
25.11.2020 08:58 14,6 C 1,0 C 5,4 C 57 % 94 % 1017,3 hPa 0,0 l/m 0,0 km/h (0 Bft) S-SO 157 0,1 C 1,0 C 0,0 km/h (0 Bft)
25.11.2020 08:56 14,6 C 1,0 C 5,4 C 58 % 94 % 1017,3 hPa 0,0 l/m 0,0 km/h (0 Bft) S 180 0,1 C 1,0 C 0,0 km/h (0 Bft)
25.11.2020 08:54 14,6 C 1,0 C 5,4 C 58 % 94 % 1017,3 hPa 0,0 l/m 0,0 km/h (0 Bft) S-SO 157 0,1 C 1,0 C 0,0 km/h (0 Bft)
25.11.2020 08:52 14,6 C 1,0 C 5,4 C 58 % 94 % 1017,3 hPa 0,0 l/m 0,0 km/h (0 Bft) SO 135 0,1 C 1,0 C 0,0 km/h (0 Bft)
25.11.2020 08:50 14,6 C 1,0 C 5,4 C 58 % 94 % 1017,2 hPa 0,0 l/m 0,0 km/h (0 Bft) S-SO 157 0,1 C 1,0 C 0,0 km/h (0 Bft)
25.11.2020 08:47 14,7 C 1,0 C 5,3 C 57 % 94 % 1017,2 hPa 0,0 l/m 0,0 km/h (0 Bft) S 180 0,1 C 1,0 C 0,0 km/h (0 Bft)
25.11.2020 08:42 14,7 C 0,8 C 5,3 C 57 % 94 % 1017,2 hPa 0,0 l/m 0,0 km/h (0 Bft) S-SO 157 -0,1 C 0,8 C 0,0 km/h (0 Bft)
25.11.2020 08:37 14,6 C 0,8 C 5,3 C 57 % 94 % 1017,2 hPa 0,0 l/m 0,0 km/h (0 Bft) S-SO 157 -0,1 C 0,8 C 0,0 km/h (0 Bft)
25.11.2020 08:32 14,8 C 0,8 C 5,3 C 57 % 94 % 1017,2 hPa 0,0 l/m 0,0 km/h (0 Bft) S-SO 157 -0,1 C 0,8 C 0,0 km/h (0 Bft)
25.11.2020 08:27 14,8 C 0,8 C 5,3 C 57 % 94 % 1017,1 hPa 0,0 l/m 0,0 km/h (0 Bft) S 180 -0,1 C 0,8 C 0,0 km/h (0 Bft)
25.11.2020 08:22 14,8 C 0,8 C 5,2 C 57 % 94 % 1017,1 hPa 0,0 l/m 0,0 km/h (0 Bft) SO 135 -0,1 C 0,8 C 0,0 km/h (0 Bft)
25.11.2020 08:17 14,8 C 0,7 C 5,2 C 57 % 94 % 1017,1 hPa 0,0 l/m 0,0 km/h (0 Bft) SO 135 -0,2 C 0,7 C 0,0 km/h (0 Bft)
25.11.2020 08:12 14,8 C 0,7 C 5,1 C 57 % 94 % 1017,1 hPa 0,0 l/m 0,0 km/h (0 Bft) O-SO 112 -0,2 C 0,7 C 0,0 km/h (0 Bft)
25.11.2020 08:07 14,8 C 0,8 C 5,2 C 57 % 94 % 1017,2 hPa 0,0 l/m 0,0 km/h (0 Bft) SW 225 -0,1 C 0,8 C 0,0 km/h (0 Bft)
25.11.2020 08:02 14,8 C 0,8 C 5,2 C 57 % 94 % 1017,2 hPa 0,0 l/m 0,0 km/h (0 Bft) S-SO 157 -0,1 C 0,8 C 0,0 km/h (0 Bft)
25.11.2020 07:57 14,8 C 0,8 C 5,2 C 57 % 94 % 1017,2 hPa 0,0 l/m 0,0 km/h (0 Bft) O-SO 112 -0,1 C 0,8 C 0,0 km/h (0 Bft)
25.11.2020 07:52 14,8 C 0,8 C 5,2 C 57 % 94 % 1017,2 hPa 0,0 l/m 0,0 km/h (0 Bft) S-SO 157 -0,1 C 0,8 C 0,0 km/h (0 Bft)
25.11.2020 07:47 14,8 C 0,8 C 5,1 C 57 % 94 % 1017,1 hPa 0,0 l/m 0,0 km/h (0 Bft) S-SO 157 -0,1 C 0,8 C 0,0 km/h (0 Bft)
25.11.2020 07:42 14,8 C 0,8 C 5,1 C 57 % 94 % 1017,1 hPa 0,0 l/m 0,0 km/h (0 Bft) S-SO 157 -0,1 C 0,8 C 0,0 km/h (0 Bft)
25.11.2020 07:37 14,8 C 1,0 C 5,1 C 57 % 94 % 1017,1 hPa 0,0 l/m 0,0 km/h (0 Bft) S-SO 157 0,1 C 1,0 C 0,0 km/h (0 Bft)
25.11.2020 07:32 14,8 C 1,0 C 5,1 C 57 % 95 % 1017,1 hPa 0,0 l/m 0,0 km/h (0 Bft) S 180 0,3 C 1,0 C 0,0 km/h (0 Bft)
25.11.2020 07:27 14,9 C 1,0 C 5,0 C 57 % 95 % 1017,1 hPa 0,0 l/m 0,0 km/h (0 Bft) SO 135 0,3 C 1,0 C 0,0 km/h (0 Bft)
25.11.2020 07:22 14,8 C 1,0 C 5,1 C 57 % 95 % 1017,1 hPa 0,0 l/m 0,0 km/h (0 Bft) O-NO 67 0,3 C 1,0 C 0,0 km/h (0 Bft)
25.11.2020 07:17 14,8 C 1,0 C 5,0 C 57 % 95 % 1017,1 hPa 0,0 l/m 0,0 km/h (0 Bft) NO 45 0,3 C 1,0 C 0,0 km/h (0 Bft)
25.11.2020 07:12 14,8 C 1,0 C 5,0 C 57 % 95 % 1017,1 hPa 0,0 l/m 0,0 km/h (0 Bft) O-NO 67 0,3 C 1,0 C 0,0 km/h (0 Bft)
25.11.2020 07:07 15,0 C 1,0 C 5,0 C 57 % 95 % 1016,9 hPa 0,0 l/m 0,2 km/h (0 Bft) N-NO 22 0,3 C 1,0 C 0,0 km/h (0 Bft)
25.11.2020 07:02 15,0 C 1,0 C 5,0 C 57 % 95 % 1016,9 hPa 0,0 l/m 0,2 km/h (0 Bft) S-SO 157 0,3 C 1,0 C 0,0 km/h (0 Bft)
25.11.2020 06:57 14,9 C 0,9 C 5,1 C 56 % 95 % 1016,9 hPa 0,0 l/m 0,0 km/h (0 Bft) S-SO 157 0,2 C 0,9 C 0,0 km/h (0 Bft)
25.11.2020 06:52 14,9 C 0,9 C 5,0 C 56 % 95 % 1016,9 hPa 0,0 l/m 0,0 km/h (0 Bft) SO 135 0,2 C 0,9 C 0,0 km/h (0 Bft)
25.11.2020 06:47 15,1 C 1,1 C 5,1 C 56 % 95 % 1017,1 hPa 0,0 l/m 0,0 km/h (0 Bft) S-SW 202 0,4 C 1,1 C 0,0 km/h (0 Bft)
25.11.2020 06:42 15,1 C 1,1 C 5,1 C 56 % 95 % 1017,1 hPa 0,0 l/m 0,0 km/h (0 Bft) O-SO 112 0,4 C 1,1 C 0,0 km/h (0 Bft)
25.11.2020 06:37 15,1 C 1,1 C 5,2 C 56 % 95 % 1017,1 hPa 0,0 l/m 0,0 km/h (0 Bft) O-NO 67 0,4 C 1,1 C 0,0 km/h (0 Bft)
25.11.2020 06:32 15,2 C 0,9 C 5,2 C 56 % 95 % 1017,1 hPa 0,0 l/m 0,0 km/h (0 Bft) O-NO 67 0,2 C 0,9 C 0,0 km/h (0 Bft)
25.11.2020 06:27 15,2 C 1,1 C 5,2 C 56 % 95 % 1017,0 hPa 0,0 l/m 0,0 km/h (0 Bft) SO 135 0,4 C 1,1 C 0,0 km/h (0 Bft)
25.11.2020 06:22 15,2 C 1,1 C 5,2 C 56 % 95 % 1017,0 hPa 0,0 l/m 0,0 km/h (0 Bft) S-SO 157 0,4 C 1,1 C 0,0 km/h (0 Bft)
25.11.2020 06:17 15,2 C 1,1 C 5,2 C 56 % 95 % 1017,0 hPa 0,0 l/m 0,0 km/h (0 Bft) SO 135 0,4 C 1,1 C 0,0 km/h (0 Bft)
25.11.2020 06:12 15,1 C 1,1 C 5,3 C 56 % 95 % 1017,0 hPa 0,0 l/m 0,0 km/h (0 Bft) S-SO 157 0,4 C 1,1 C 0,0 km/h (0 Bft)
25.11.2020 06:07 15,1 C 1,1 C 5,3 C 56 % 95 % 1017,1 hPa 0,0 l/m 0,0 km/h (0 Bft) S-SO 157 0,4 C 1,1 C 0,0 km/h (0 Bft)
25.11.2020 06:02 15,3 C 1,1 C 5,3 C 56 % 95 % 1017,1 hPa 0,0 l/m 0,0 km/h (0 Bft) S-SO 157 0,4 C 1,1 C 0,0 km/h (0 Bft)
25.11.2020 05:57 15,2 C 1,1 C 5,3 C 56 % 95 % 1017,1 hPa 0,0 l/m 0,0 km/h (0 Bft) S-SW 202 0,4 C 1,1 C 0,0 km/h (0 Bft)
25.11.2020 05:52 15,2 C 1,1 C 5,3 C 56 % 95 % 1017,1 hPa 0,0 l/m 0,0 km/h (0 Bft) SO 135 0,4 C 1,1 C 0,0 km/h (0 Bft)
25.11.2020 05:47 15,2 C 1,2 C 5,4 C 56 % 95 % 1017,2 hPa 0,0 l/m 0,0 km/h (0 Bft) S-SO 157 0,5 C 1,2 C 0,0 km/h (0 Bft)
25.11.2020 05:42 15,4 C 1,2 C 5,4 C 56 % 95 % 1017,2 hPa 0,0 l/m 0,0 km/h (0 Bft) SO 135 0,5 C 1,2 C 0,0 km/h (0 Bft)
25.11.2020 05:37 15,4 C 1,2 C 5,3 C 56 % 95 % 1017,2 hPa 0,0 l/m 0,0 km/h (0 Bft) O 90 0,5 C 1,2 C 0,0 km/h (0 Bft)
25.11.2020 05:32 15,4 C 1,2 C 5,3 C 56 % 95 % 1017,2 hPa 0,0 l/m 0,0 km/h (0 Bft) S-SO 157 0,5 C 1,2 C 0,0 km/h (0 Bft)
25.11.2020 05:27 15,4 C 1,2 C 5,4 C 56 % 95 % 1017,2 hPa 0,0 l/m 0,0 km/h (0 Bft) SO 135 0,5 C 1,2 C 0,0 km/h (0 Bft)
25.11.2020 05:22 15,3 C 1,3 C 5,3 C 56 % 95 % 1017,2 hPa 0,0 l/m 0,0 km/h (0 Bft) S-SO 157 0,6 C 1,3 C 0,0 km/h (0 Bft)
25.11.2020 05:17 15,5 C 1,3 C 5,3 C 56 % 95 % 1017,2 hPa 0,0 l/m 0,0 km/h (0 Bft) O-SO 112 0,6 C 1,3 C 0,0 km/h (0 Bft)
25.11.2020 05:12 15,5 C 1,3 C 5,3 C 56 % 95 % 1017,2 hPa 0,0 l/m 0,0 km/h (0 Bft) S-SO 157 0,6 C 1,3 C 0,0 km/h (0 Bft)
25.11.2020 05:07 15,6 C 1,2 C 5,3 C 56 % 95 % 1017,2 hPa 0,0 l/m 0,0 km/h (0 Bft) SO 135 0,5 C 1,2 C 0,0 km/h (0 Bft)
25.11.2020 05:02 15,6 C 1,2 C 5,3 C 56 % 95 % 1017,2 hPa 0,0 l/m 0,0 km/h (0 Bft) SO 135 0,5 C 1,2 C 0,0 km/h (0 Bft)
25.11.2020 04:57 15,6 C 1,2 C 5,3 C 56 % 95 % 1017,2 hPa 0,0 l/m 0,0 km/h (0 Bft) SO 135 0,5 C 1,2 C 0,0 km/h (0 Bft)
25.11.2020 04:52 15,6 C 1,2 C 5,3 C 55 % 95 % 1017,2 hPa 0,0 l/m 0,0 km/h (0 Bft) SO 135 0,5 C 1,2 C 0,0 km/h (0 Bft)
25.11.2020 04:47 15,6 C 1,2 C 5,3 C 55 % 95 % 1017,3 hPa 0,0 l/m 0,0 km/h (0 Bft) S 180 0,5 C 1,2 C 0,0 km/h (0 Bft)
25.11.2020 04:42 15,7 C 1,2 C 5,3 C 55 % 95 % 1017,3 hPa 0,0 l/m 0,0 km/h (0 Bft) S-SO 157 0,5 C 1,2 C 0,0 km/h (0 Bft)
25.11.2020 04:37 15,6 C 1,2 C 5,3 C 55 % 95 % 1017,3 hPa 0,0 l/m 0,0 km/h (0 Bft) S-SO 157 0,5 C 1,2 C 0,0 km/h (0 Bft)
25.11.2020 04:32 15,6 C 1,2 C 5,3 C 55 % 95 % 1017,3 hPa 0,0 l/m 0,0 km/h (0 Bft) S-SO 157 0,5 C 1,2 C 0,0 km/h (0 Bft)
25.11.2020 04:27 15,8 C 1,3 C 5,3 C 55 % 95 % 1017,5 hPa 0,0 l/m 0,0 km/h (0 Bft) S-SO 157 0,6 C 1,3 C 0,0 km/h (0 Bft)
25.11.2020 04:22 15,8 C 1,4 C 5,3 C 55 % 95 % 1017,5 hPa 0,0 l/m 0,0 km/h (0 Bft) O 90 0,7 C 1,4 C 0,0 km/h (0 Bft)
25.11.2020 04:17 15,8 C 1,4 C 5,2 C 55 % 95 % 1017,5 hPa 0,0 l/m 0,0 km/h (0 Bft) S-SO 157 0,7 C 1,4 C 0,0 km/h (0 Bft)
25.11.2020 04:12 15,8 C 1,4 C 5,2 C 55 % 95 % 1017,5 hPa 0,0 l/m 0,0 km/h (0 Bft) S 180 0,7 C 1,4 C 0,0 km/h (0 Bft)
25.11.2020 04:07 15,9 C 1,4 C 5,2 C 55 % 95 % 1017,5 hPa 0,0 l/m 0,0 km/h (0 Bft) S-SO 157 0,7 C 1,4 C 0,0 km/h (0 Bft)
25.11.2020 04:02 15,8 C 1,4 C 5,3 C 55 % 95 % 1017,5 hPa 0,0 l/m 0,0 km/h (0 Bft) NO 45 0,7 C 1,4 C 0,0 km/h (0 Bft)
25.11.2020 03:57 16,0 C 1,4 C 5,3 C 55 % 95 % 1017,5 hPa 0,0 l/m 0,0 km/h (0 Bft) O-SO 112 0,7 C 1,4 C 0,0 km/h (0 Bft)
25.11.2020 03:52 16,0 C 1,5 C 5,4 C 55 % 95 % 1017,5 hPa 0,0 l/m 0,0 km/h (0 Bft) S-SO 157 0,8 C 1,5 C 0,0 km/h (0 Bft)
25.11.2020 03:47 15,9 C 1,5 C 5,4 C 54 % 95 % 1017,6 hPa 0,0 l/m 0,0 km/h (0 Bft) S-SO 157 0,8 C 1,5 C 0,0 km/h (0 Bft)
25.11.2020 03:42 16,1 C 1,5 C 5,3 C 54 % 95 % 1017,6 hPa 0,0 l/m 0,0 km/h (0 Bft) S 180 0,8 C 1,5 C 0,0 km/h (0 Bft)
25.11.2020 03:37 16,1 C 1,4 C 5,3 C 54 % 95 % 1017,6 hPa 0,0 l/m 0,0 km/h (0 Bft) S-SO 157 0,7 C 1,4 C 0,0 km/h (0 Bft)
25.11.2020 03:32 16,2 C 1,4 C 5,3 C 54 % 95 % 1017,6 hPa 0,0 l/m 0,0 km/h (0 Bft) S-SO 157 0,7 C 1,4 C 0,0 km/h (0 Bft)
25.11.2020 03:27 16,2 C 1,4 C 5,4 C 54 % 95 % 1018,0 hPa 0,0 l/m 0,0 km/h (0 Bft) S-SO 157 0,7 C 1,4 C 0,0 km/h (0 Bft)
25.11.2020 03:22 16,3 C 1,4 C 5,3 C 54 % 95 % 1018,0 hPa 0,0 l/m 0,0 km/h (0 Bft) S-SO 157 0,7 C 1,4 C 0,0 km/h (0 Bft)
25.11.2020 03:17 16,4 C 1,4 C 5,3 C 54 % 95 % 1018,0 hPa 0,0 l/m 0,0 km/h (0 Bft) S-SO 157 0,7 C 1,4 C 0,0 km/h (0 Bft)
25.11.2020 03:12 16,4 C 1,4 C 5,3 C 53 % 95 % 1018,0 hPa 0,0 l/m 0,0 km/h (0 Bft) SO 135 0,7 C 1,4 C 0,0 km/h (0 Bft)
25.11.2020 03:07 16,5 C 1,5 C 5,3 C 53 % 94 % 1018,0 hPa 0,0 l/m 0,0 km/h (0 Bft) SO 135 0,6 C 1,5 C 0,0 km/h (0 Bft)
25.11.2020 03:02 16,5 C 1,5 C 5,3 C 53 % 94 % 1018,0 hPa 0,0 l/m 0,0 km/h (0 Bft) SO 135 0,6 C 1,5 C 0,0 km/h (0 Bft)
25.11.2020 02:57 16,6 C 1,5 C 5,4 C 53 % 94 % 1018,0 hPa 0,0 l/m 0,0 km/h (0 Bft) S-SO 157 0,6 C 1,5 C 0,0 km/h (0 Bft)
25.11.2020 02:52 16,6 C 1,5 C 5,3 C 53 % 94 % 1018,0 hPa 0,0 l/m 0,0 km/h (0 Bft) S 180 0,6 C 1,5 C 0,0 km/h (0 Bft)
25.11.2020 02:47 16,6 C 1,5 C 5,4 C 53 % 94 % 1018,2 hPa 0,0 l/m 0,0 km/h (0 Bft) S-SO 157 0,6 C 1,5 C 0,0 km/h (0 Bft)
25.11.2020 02:42 16,7 C 1,6 C 5,4 C 53 % 94 % 1018,2 hPa 0,0 l/m 0,2 km/h (0 Bft) NO 45 0,7 C 1,6 C 0,0 km/h (0 Bft)
25.11.2020 02:37 16,7 C 1,5 C 5,4 C 53 % 94 % 1018,2 hPa 0,0 l/m 1,0 km/h (0 Bft) S-SO 157 0,6 C 1,5 C 0,0 km/h (0 Bft)
25.11.2020 02:32 16,8 C 1,6 C 5,4 C 53 % 94 % 1018,2 hPa 0,0 l/m 1,0 km/h (0 Bft) NO 45 0,7 C 1,6 C 6,0 km/h (2 Bft)
25.11.2020 02:27 16,8 C 1,5 C 5,4 C 53 % 94 % 1018,5 hPa 0,0 l/m 0,0 km/h (0 Bft) S-SO 157 0,6 C 1,5 C 0,0 km/h (0 Bft)
25.11.2020 02:22 16,8 C 1,6 C 5,5 C 53 % 94 % 1018,5 hPa 0,0 l/m 0,0 km/h (0 Bft) SO 135 0,7 C 1,6 C 0,0 km/h (0 Bft)
25.11.2020 02:17 16,9 C 1,6 C 5,5 C 53 % 94 % 1018,5 hPa 0,0 l/m 0,0 km/h (0 Bft) S 180 0,7 C 1,6 C 0,0 km/h (0 Bft)
25.11.2020 02:12 16,9 C 1,6 C 5,5 C 53 % 94 % 1018,5 hPa 0,0 l/m 0,0 km/h (0 Bft) S 180 0,7 C 1,6 C 0,0 km/h (0 Bft)
25.11.2020 02:07 17,0 C 1,6 C 5,5 C 53 % 94 % 1018,6 hPa 0,0 l/m 0,0 km/h (0 Bft) S-SO 157 0,7 C 1,6 C 0,0 km/h (0 Bft)
25.11.2020 02:02 17,0 C 1,6 C 5,5 C 53 % 94 % 1018,6 hPa 0,0 l/m 0,0 km/h (0 Bft) S 180 0,7 C 1,6 C 0,0 km/h (0 Bft)
25.11.2020 01:57 17,1 C 1,7 C 5,5 C 52 % 94 % 1018,6 hPa 0,0 l/m 0,0 km/h (0 Bft) S-SO 157 0,8 C 1,7 C 0,0 km/h (0 Bft)
25.11.2020 01:52 17,2 C 1,7 C 5,5 C 52 % 94 % 1018,6 hPa 0,0 l/m 0,0 km/h (0 Bft) S-SO 157 0,8 C 1,7 C 0,0 km/h (0 Bft)
25.11.2020 01:47 17,2 C 1,9 C 5,5 C 52 % 94 % 1018,8 hPa 0,0 l/m 0,0 km/h (0 Bft) S-SO 157 1,0 C 1,9 C 0,0 km/h (0 Bft)
25.11.2020 01:42 17,2 C 1,9 C 5,6 C 52 % 94 % 1018,8 hPa 0,0 l/m 0,0 km/h (0 Bft) S-SO 157 1,0 C 1,9 C 0,0 km/h (0 Bft)
25.11.2020 01:37 17,3 C 2,0 C 5,6 C 52 % 94 % 1018,8 hPa 0,0 l/m 0,0 km/h (0 Bft) S-SO 157 1,1 C 2,0 C 0,0 km/h (0 Bft)
25.11.2020 01:32 17,2 C 2,0 C 5,6 C 52 % 94 % 1018,8 hPa 0,0 l/m 0,0 km/h (0 Bft) S-SO 157 1,1 C 2,0 C 0,0 km/h (0 Bft)
25.11.2020 01:27 17,4 C 2,0 C 5,6 C 52 % 94 % 1018,9 hPa 0,0 l/m 0,0 km/h (0 Bft) SO 135 1,1 C 2,0 C 0,0 km/h (0 Bft)
25.11.2020 01:22 17,4 C 2,0 C 5,6 C 52 % 94 % 1018,9 hPa 0,0 l/m 0,0 km/h (0 Bft) S-SO 157 1,1 C 2,0 C 0,0 km/h (0 Bft)
25.11.2020 01:17 17,5 C 2,1 C 5,6 C 51 % 94 % 1018,9 hPa 0,0 l/m 0,0 km/h (0 Bft) S-SO 157 1,2 C 2,1 C 0,0 km/h (0 Bft)
25.11.2020 01:12 17,6 C 2,1 C 5,6 C 51 % 94 % 1018,9 hPa 0,0 l/m 0,0 km/h (0 Bft) S-SO 157 1,2 C 2,1 C 0,0 km/h (0 Bft)
25.11.2020 01:07 17,6 C 2,1 C 5,6 C 51 % 94 % 1019,3 hPa 0,0 l/m 0,0 km/h (0 Bft) S-SO 157 1,2 C 2,1 C 0,0 km/h (0 Bft)
25.11.2020 01:02 17,7 C 2,1 C 5,6 C 51 % 94 % 1019,3 hPa 0,0 l/m 0,0 km/h (0 Bft) S 180 1,2 C 2,1 C 0,0 km/h (0 Bft)
25.11.2020 00:57 17,8 C 2,1 C 5,6 C 51 % 94 % 1019,3 hPa 0,0 l/m 0,0 km/h (0 Bft) O-SO 112 1,2 C 2,1 C 0,0 km/h (0 Bft)
25.11.2020 00:52 17,8 C 2,1 C 5,6 C 51 % 94 % 1019,3 hPa 0,0 l/m 0,0 km/h (0 Bft) SO 135 1,2 C 2,1 C 0,0 km/h (0 Bft)
25.11.2020 00:47 18,0 C 2,1 C 5,6 C 50 % 94 % 1019,8 hPa 0,0 l/m 0,0 km/h (0 Bft) S 180 1,2 C 2,1 C 0,0 km/h (0 Bft)
25.11.2020 00:42 18,0 C 2,1 C 5,6 C 50 % 94 % 1019,8 hPa 0,0 l/m 0,0 km/h (0 Bft) SO 135 1,2 C 2,1 C 0,0 km/h (0 Bft)
25.11.2020 00:37 18,1 C 2,1 C 5,6 C 50 % 94 % 1019,8 hPa 0,0 l/m 0,0 km/h (0 Bft) SO 135 1,2 C 2,1 C 0,0 km/h (0 Bft)
25.11.2020 00:32 18,2 C 2,1 C 5,6 C 50 % 94 % 1019,8 hPa 0,0 l/m 0,0 km/h (0 Bft) SO 135 1,2 C 2,1 C 0,0 km/h (0 Bft)
25.11.2020 00:27 18,3 C 2,1 C 5,6 C 50 % 94 % 1020,2 hPa 0,0 l/m 0,2 km/h (0 Bft) S 180 1,2 C 2,1 C 0,0 km/h (0 Bft)
25.11.2020 00:22 18,4 C 2,1 C 5,6 C 50 % 94 % 1020,2 hPa 0,0 l/m 0,2 km/h (0 Bft) S-SO 157 1,2 C 2,1 C 0,0 km/h (0 Bft)
25.11.2020 00:17 18,4 C 2,1 C 5,6 C 49 % 94 % 1020,2 hPa 0,0 l/m 0,0 km/h (0 Bft) S-SO 157 1,2 C 2,1 C 0,0 km/h (0 Bft)
25.11.2020 00:12 18,5 C 2,2 C 5,6 C 49 % 94 % 1020,2 hPa 0,0 l/m 0,0 km/h (0 Bft) O-NO 67 1,3 C 2,2 C 0,0 km/h (0 Bft)
25.11.2020 00:07 18,6 C 2,1 C 5,5 C 49 % 94 % 1020,6 hPa 0,0 l/m 0,0 km/h (0 Bft) SO 135 1,2 C 2,1 C 0,0 km/h (0 Bft)
25.11.2020 00:02 18,7 C 2,1 C 5,5 C 49 % 94 % 1020,6 hPa 0,0 l/m 0,0 km/h (0 Bft) SO 135 1,2 C 2,1 C 0,0 km/h (0 Bft)
_ Min-Zeit 10:18 22:40 20:32 16:06 15:16 06:52 - 00:02 - - 22:40 22:40 00:02
Minimum _ 14,2 C 0,0 C 4,4 C 37 % 91 % 1016,9 hPa - 0,0 km/h (0 Bft) - - -1,1 C 0,0 C 0,0 km/h (0 Bft)
_ Max-Zeit 15:08 00:12 12:16 08:50 03:12 15:32 00:02 17:16 - - 00:12 00:12 17:24
Maximum _ 26,7 C 2,2 C 6,2 C 58 % 95 % 1024,9 hPa 0,0 l/m 1,2 km/h
S-SW (1 Bft)
- - 1,3 C 2,2 C 13,8 km/h
SO (3 Bft)
Durchschnitt _ 18,9 C 1,1 C 5,3 C 50 % 93 % 1019,9 hPa #0,0 l/m 0,0 km/h (0 Bft) S-SO - 0,1 C 1,1 C 0,1 km/h (0 Bft)